FW7316 Weather Reports


Display with metric or nautical units.
time (UTC)temp
F
wind
direction
speed
MPH
gust
MPH
rain 1hr
in
rain 24hr
in
rain mn
in
humidity
%
barometer
mb
20260903082104 82 321 3.0 8.0 0.00 0.00 0.00 62 1018.0
20260903081906 82 360 4.0 8.0 0.00 0.00 0.00 63 1018.0
20260903081707 82 318 8.0 8.0 0.00 0.00 0.00 63 1018.0
20260903081604 81 48 0.0 7.0 0.00 0.00 0.00 62 1017.9
20260903081505 81 329 2.0 7.0 0.00 0.00 0.00 62 1018.0
20260903081407 81 202 1.0 7.0 0.00 0.00 0.00 63 1017.9
20260903081304 81 285 2.0 7.0 0.00 0.00 0.00 63 1017.9
20260903081204 81 349 4.0 7.0 0.00 0.00 0.00 64 1018.0
20260903081107 81 350 7.0 7.0 0.00 0.00 0.00 63 1017.9
20260903081005 81 273 4.0 7.0 0.00 0.00 0.00 64 1017.8
20260903080807 81 229 1.0 7.0 0.00 0.00 0.00 64 1017.8
20260903080704 81 283 2.0 7.0 0.00 0.00 0.00 63 1017.8
20260903080605 81 260 1.0 7.0 0.00 0.00 0.00 63 1017.9
20260903080507 81 140 1.0 7.0 0.00 0.00 0.00 63 1017.9
20260903080207 81 278 4.0 7.0 0.00 0.00 0.00 64 1017.8
20260903080119 81 273 4.0 7.0 0.00 0.00 0.00 63 1017.9
20260903080008 81 300 5.0 7.0 0.00 0.00 0.00 63 1017.8
20260903075906 81 272 4.0 7.0 0.00 0.00 0.00 65 1017.8
20260903075704 81 317 7.0 7.0 0.00 0.00 0.00 65 1017.8
20260903075607 81 322 4.0 7.0 0.00 0.00 0.00 65 1017.8
20260903075505 81 323 5.0 7.0 0.00 0.00 0.00 65 1017.8
20260903075404 81 326 5.0 7.0 0.00 0.00 0.00 65 1017.8
20260903075104 80 263 3.0 7.0 0.00 0.00 0.00 65 1017.8
20260903075007 80 284 1.0 7.0 0.00 0.00 0.00 66 1017.8
20260903074904 80 344 3.0 7.0 0.00 0.00 0.00 66 1017.9
20260903074805 80 312 6.0 7.0 0.00 0.00 0.00 66 1017.8
20260903074707 80 295 1.0 7.0 0.00 0.00 0.00 66 1017.8
20260903074604 80 333 5.0 7.0 0.00 0.00 0.00 67 1017.8
20260903074504 80 323 3.0 7.0 0.00 0.00 0.00 66 1017.8
20260903074407 80 331 2.0 7.0 0.00 0.00 0.00 65 1017.8
20260903074305 80 288 4.0 7.0 0.00 0.00 0.00 65 1017.7
20260903074205 80 296 3.0 7.0 0.00 0.00 0.00 66 1017.7
20260903074107 80 290 4.0 7.0 0.00 0.00 0.00 66 1017.7
20260903074005 80 313 4.0 7.0 0.00 0.00 0.00 67 1017.7
20260903073904 80 331 3.0 7.0 0.00 0.00 0.00 67 1017.7
20260903073806 80 311 4.0 7.0 0.00 0.00 0.00 67 1017.7
20260903073704 79 325 7.0 8.0 0.00 0.00 0.00 68 1017.7
20260903073605 79 338 4.0 8.0 0.00 0.00 0.00 68 1017.7
20260903073507 79 350 4.0 8.0 0.00 0.00 0.00 68 1017.7
20260903073404 79 336 5.0 8.0 0.00 0.00 0.00 68 1017.7
20260903073305 79 294 2.0 8.0 0.00 0.00 0.00 67 1017.8
20260903073207 79 294 7.0 8.0 0.00 0.00 0.00 67 1017.8
20260903073105 79 338 4.0 8.0 0.00 0.00 0.00 68 1017.7
20260903073006 79 284 4.0 8.0 0.00 0.00 0.00 68 1017.7
20260903072907 79 288 4.0 8.0 0.00 0.00 0.00 69 1017.7
20260903072804 78 285 3.0 8.0 0.00 0.00 0.00 69 1017.7
20260903072607 78 273 2.0 7.0 0.00 0.00 0.00 69 1017.7
20260903072404 78 286 2.0 7.0 0.00 0.00 0.00 69 1017.6
20260903072204 78 276 2.0 7.0 0.00 0.00 0.00 70 1017.7
20260903072105 77 256 6.0 7.0 0.00 0.00 0.00 70 1017.7
20260903072007 77 272 3.0 7.0 0.00 0.00 0.00 70 1017.7
20260903071804 77 309 5.0 7.0 0.00 0.00 0.00 70 1017.7
20260903071707 77 271 5.0 7.0 0.00 0.00 0.00 70 1017.6
20260903071605 77 264 5.0 7.0 0.00 0.00 0.00 70 1017.6
20260903071505 77 279 4.0 7.0 0.00 0.00 0.00 70 1017.6
20260903071407 77 305 4.0 7.0 0.00 0.00 0.00 70 1017.6
20260903071304 77 276 3.0 7.0 0.00 0.00 0.00 71 1017.7
20260903071107 77 298 7.0 7.0 0.00 0.00 0.00 71 1017.7
20260903070904 76 328 2.0 7.0 0.00 0.00 0.00 71 1017.6
20260903070705 76 273 2.0 5.0 0.00 0.00 0.00 72 1017.7
20260903070604 76 205 3.0 5.0 0.00 0.00 0.00 73 1017.7
20260903070507 76 284 2.0 5.0 0.00 0.00 0.00 73 1017.7
20260903070405 76 291 4.0 5.0 0.00 0.00 0.00 72 1017.7
20260903070208 76 273 4.0 5.0 0.00 0.00 0.00 72 1017.7
20260903070105 76 305 4.0 5.0 0.00 0.00 0.00 73 1017.7
20260903070008 76 255 4.0 5.0 0.00 0.00 0.00 74 1017.7
20260903065907 76 257 3.0 5.0 0.00 0.00 0.00 73 1017.7
20260903065804 76 232 2.0 5.0 0.00 0.00 0.00 74 1017.7
20260903065704 75 288 4.0 5.0 0.00 0.00 0.00 74 1017.7
20260903065607 75 293 4.0 5.0 0.00 0.00 0.00 74 1017.6
20260903065505 75 282 2.0 5.0 0.00 0.00 0.00 75 1017.7
20260903065404 75 243 2.0 5.0 0.00 0.00 0.00 76 1017.6
20260903065307 75 325 3.0 5.0 0.00 0.00 0.00 76 1017.6
20260903065104 74 261 3.0 4.0 0.00 0.00 0.00 76 1017.6
20260903065008 74 248 3.0 4.0 0.00 0.00 0.00 76 1017.6
20260903064904 74 238 1.0 4.0 0.00 0.00 0.00 77 1017.6
20260903064805 74 265 2.0 4.0 0.00 0.00 0.00 77 1017.6
20260903064707 74 261 3.0 4.0 0.00 0.00 0.00 78 1017.6
20260903064605 74 298 2.0 4.0 0.00 0.00 0.00 78 1017.5
20260903064504 73 290 4.0 4.0 0.00 0.00 0.00 78 1017.5
20260903064407 73 274 2.0 4.0 0.00 0.00 0.00 78 1017.5
20260903064304 73 255 3.0 4.0 0.00 0.00 0.00 78 1017.5
20260903064204 73 265 2.0 4.0 0.00 0.00 0.00 79 1017.5
20260903064108 73 266 1.0 4.0 0.00 0.00 0.00 79 1017.5
20260903063905 72 285 3.0 4.0 0.00 0.00 0.00 80 1017.5
20260903063807 72 267 2.0 5.0 0.00 0.00 0.00 80 1017.5
20260903063705 72 308 2.0 5.0 0.00 0.00 0.00 81 1017.5
20260903063604 72 261 4.0 7.0 0.00 0.00 0.00 81 1017.5
20260903063507 72 275 2.0 7.0 0.00 0.00 0.00 81 1017.5
20260903063404 71 238 2.0 7.0 0.00 0.00 0.00 82 1017.5
20260903063304 71 255 2.0 7.0 0.00 0.00 0.00 82 1017.5
20260903063207 71 268 3.0 7.0 0.00 0.00 0.00 83 1017.6
20260903063104 71 266 1.0 7.0 0.00 0.00 0.00 84 1017.6
20260903063005 71 269 2.0 7.0 0.00 0.00 0.00 84 1017.5
20260903062907 70 283 2.0 7.0 0.00 0.00 0.00 84 1017.6
20260903062805 70 277 3.0 7.0 0.00 0.00 0.00 85 1017.6
20260903062707 70 283 4.0 7.0 0.00 0.00 0.00 86 1017.6
20260903062608 70 289 4.0 6.0 0.00 0.00 0.00 86 1017.6
20260903062505 70 290 4.0 5.0 0.00 0.00 0.00 87 1017.6
20260903062204 69 290 4.0 5.0 0.00 0.00 0.00 89 1017.5
20260903062105 68 283 4.0 5.0 0.00 0.00 0.00 90 1017.6
20260903062008 68 298 2.0 5.0 0.00 0.00 0.00 90 1017.6
20260903061905 68 271 2.0 5.0 0.00 0.00 0.00 91 1017.6
20260903061707 68 292 3.0 5.0 0.00 0.00 0.00 92 1017.6
20260903061604 67 173 2.0 3.0 0.00 0.00 0.00 92 1017.5
20260903061407 67 173 0.0 0.0 0.00 0.00 0.00 92 1017.6
20260903061305 67 173 0.0 0.0 0.00 0.00 0.00 93 1017.6
20260903061206 67 173 0.0 0.0 0.00 0.00 0.00 93 1017.6
20260903061108 67 173 0.0 0.0 0.00 0.00 0.00 93 1017.6
20260903061005 66 173 0.0 0.0 0.00 0.00 0.00 93 1017.5
20260903060905 66 173 0.0 0.0 0.00 0.00 0.00 93 1017.5
20260903060807 66 173 0.0 0.0 0.00 0.00 0.00 93 1017.5
20260903060704 66 173 0.0 0.0 0.00 0.00 0.00 93 1017.5
20260903060604 66 173 0.0 0.0 0.00 0.00 0.00 93 1017.5
20260903060405 65 173 0.0 0.0 0.00 0.00 0.00 94 1017.5
20260903060304 65 173 0.0 0.0 0.00 0.00 0.00 94 1017.5
20260903060207 65 173 0.0 0.0 0.00 0.00 0.00 94 1017.4
20260903060117 65 173 0.0 0.0 0.00 0.00 0.00 94 1017.5
20260903060007 65 173 0.0 0.0 0.00 0.00 0.00 94 1017.4
20260903055907 65 173 0.0 0.0 0.00 0.00 0.00 94 1017.5
20260903055805 65 173 0.0 0.0 0.00 0.00 0.00 94 1017.4
20260903055704 65 173 0.0 0.0 0.00 0.00 0.00 94 1017.4
20260903055607 64 173 0.0 0.0 0.00 0.00 0.00 94 1017.4
20260903055506 64 173 0.0 0.0 0.00 0.00 0.00 94 1017.4
20260903055405 64 173 0.0 0.0 0.00 0.00 0.00 94 1017.4
20260903055307 64 173 0.0 0.0 0.00 0.00 0.00 94 1017.3
20260903055204 64 173 0.0 0.0 0.00 0.00 0.00 94 1017.4
20260903055104 64 173 0.0 0.0 0.00 0.00 0.00 94 1017.3
20260903054706 64 173 0.0 0.0 0.00 0.00 0.00 94 1017.4
20260903054604 64 173 0.0 0.0 0.00 0.00 0.00 94 1017.3
20260903054304 63 173 0.0 0.0 0.00 0.00 0.00 94 1017.3
20260903054204 63 173 0.0 0.0 0.00 0.00 0.00 95 1017.3
20260903054107 63 173 0.0 0.0 0.00 0.00 0.00 95 1017.3
20260903054005 63 173 0.0 0.0 0.00 0.00 0.00 95 1017.3
20260903053905 63 173 0.0 0.0 0.00 0.00 0.00 95 1017.3
20260903053806 63 173 0.0 0.0 0.00 0.00 0.00 95 1017.3
20260903053605 63 173 0.0 0.0 0.00 0.00 0.00 95 1017.3
20260903053507 63 173 0.0 0.0 0.00 0.00 0.00 95 1017.3
20260903053305 62 173 0.0 0.0 0.00 0.00 0.00 95 1017.3
20260903053208 62 173 0.0 0.0 0.00 0.00 0.00 95 1017.3
20260903053104 62 173 0.0 0.0 0.00 0.00 0.00 95 1017.3
20260903053006 62 173 0.0 0.0 0.00 0.00 0.00 94 1017.3
20260903052907 62 173 0.0 0.0 0.00 0.00 0.00 94 1017.3
20260903052804 62 173 0.0 0.0 0.00 0.00 0.00 94 1017.2
20260903052704 62 173 0.0 0.0 0.00 0.00 0.00 94 1017.2
20260903052607 62 173 0.0 0.0 0.00 0.00 0.00 94 1017.2
20260903052504 62 173 0.0 0.0 0.00 0.00 0.00 94 1017.1
20260903052404 62 173 0.0 0.0 0.00 0.00 0.00 94 1017.1
20260903052205 62 173 0.0 0.0 0.00 0.00 0.00 94 1017.1
20260903052104 62 173 0.0 0.0 0.00 0.00 0.00 94 1017.2
20260903052007 61 173 0.0 0.0 0.00 0.00 0.00 94 1017.1
20260903051708 61 173 0.0 0.0 0.00 0.00 0.00 94 1017.1
20260903051407 61 173 0.0 0.0 0.00 0.00 0.00 94 1017.1
20260903051304 61 173 0.0 0.0 0.00 0.00 0.00 94 1017.1
20260903051204 61 173 0.0 0.0 0.00 0.00 0.00 94 1017.1
20260903051107 61 173 0.0 0.0 0.00 0.00 0.00 94 1017.1
20260903051005 61 173 0.0 0.0 0.00 0.00 0.00 94 1017.0
20260903050904 61 173 0.0 0.0 0.00 0.00 0.00 94 1017.0
20260903050808 61 173 0.0 1.0 0.00 0.00 0.00 94 1017.0
20260903050704 61 173 0.0 1.0 0.00 0.00 0.00 94 1017.0
20260903050605 61 173 0.0 1.0 0.00 0.00 0.00 94 1017.0
20260903050507 61 173 0.0 1.0 0.00 0.00 0.00 94 1017.0
20260903050404 61 173 0.0 1.0 0.00 0.00 0.00 94 1017.0
20260903050305 61 173 0.0 1.0 0.00 0.00 0.00 94 1017.0
20260903050007 61 173 0.0 1.0 0.00 0.00 0.00 94 1016.9
20260903045907 61 173 0.0 1.0 0.00 0.00 0.00 94 1016.9
20260903045805 61 173 0.0 1.0 0.00 0.00 0.00 94 1016.9
20260903045706 61 173 0.0 1.0 0.00 0.00 0.00 93 1016.9
20260903045607 61 173 0.0 1.0 0.00 0.00 0.00 93 1016.9
20260903045404 61 173 0.0 2.0 0.00 0.00 0.00 93 1016.8
20260903045307 61 173 0.0 2.0 0.00 0.00 0.00 94 1016.8
20260903045204 61 173 0.0 2.0 0.00 0.00 0.00 93 1016.8
20260903045105 61 173 0.0 2.0 0.00 0.00 0.00 93 1016.8
20260903045009 61 173 0.0 2.0 0.00 0.00 0.00 94 1016.8
20260903044904 61 173 0.0 2.0 0.00 0.00 0.00 93 1016.8
20260903044804 61 173 0.0 2.0 0.00 0.00 0.00 93 1016.8
20260903044605 61 173 1.0 2.0 0.00 0.00 0.00 93 1016.8
20260903044505 61 173 1.0 2.0 0.00 0.00 0.00 93 1016.8
20260903044407 61 173 1.0 2.0 0.00 0.00 0.00 93 1016.7
20260903044305 61 173 1.0 2.0 0.00 0.00 0.00 93 1016.7
20260903044204 61 173 1.0 2.0 0.00 0.00 0.00 93 1016.7
20260903044005 61 173 0.0 2.0 0.00 0.00 0.00 93 1016.7
20260903043808 61 173 1.0 2.0 0.00 0.00 0.00 93 1016.7
20260903043604 61 173 0.0 2.0 0.00 0.00 0.00 93 1016.7
20260903043405 61 173 1.0 2.0 0.00 0.00 0.00 94 1016.7
20260903043304 61 173 1.0 2.0 0.00 0.00 0.00 93 1016.6
20260903043005 61 173 1.0 2.0 0.00 0.00 0.00 94 1016.6
20260903042805 61 173 1.0 2.0 0.00 0.00 0.00 94 1016.6
20260903042706 61 173 1.0 2.0 0.00 0.00 0.00 93 1016.6
20260903042607 61 173 1.0 2.0 0.00 0.00 0.00 93 1016.6
20260903042505 61 173 1.0 2.0 0.00 0.00 0.00 93 1016.6
20260903042404 61 173 1.0 2.0 0.00 0.00 0.00 93 1016.5
20260903042204 61 173 1.0 2.0 0.00 0.00 0.00 93 1016.5
20260903042104 61 173 1.0 2.0 0.00 0.00 0.00 94 1016.5
20260903042009 61 173 1.0 2.0 0.00 0.00 0.00 94 1016.5
20260903041904 61 173 1.0 2.0 0.00 0.00 0.00 93 1016.5
20260903041806 61 173 1.0 2.0 0.00 0.00 0.00 93 1016.5
20260903041708 61 173 2.0 2.0 0.00 0.00 0.00 93 1016.5
20260903041604 61 173 1.0 2.0 0.00 0.00 0.00 93 1016.4
20260903041505 61 173 1.0 2.0 0.00 0.00 0.00 93 1016.4
20260903041408 61 173 1.0 2.0 0.00 0.00 0.00 93 1016.4
20260903041204 61 173 1.0 2.0 0.00 0.00 0.00 93 1016.4
20260903041108 61 173 2.0 2.0 0.00 0.00 0.00 93 1016.3
20260903041005 61 173 2.0 2.0 0.00 0.00 0.00 93 1016.4
20260903040903 61 173 1.0 2.0 0.00 0.00 0.00 93 1016.3
20260903040704 61 173 1.0 2.0 0.00 0.00 0.00 93 1016.3
20260903040604 61 173 0.0 2.0 0.00 0.00 0.00 93 1016.4
20260903040508 61 173 1.0 2.0 0.00 0.00 0.00 93 1016.3
20260903040404 61 173 1.0 2.0 0.00 0.00 0.00 93 1016.3
20260903040304 61 173 1.0 2.0 0.00 0.00 0.00 93 1016.3
20260903040208 61 173 1.0 2.0 0.00 0.00 0.00 93 1016.4
20260903040009 61 173 1.0 2.0 0.00 0.00 0.00 93 1016.4
20260903035906 61 173 0.0 2.0 0.00 0.00 0.00 93 1016.4
20260903035804 61 173 1.0 2.0 0.00 0.00 0.00 93 1016.4
20260903035704 61 173 1.0 2.0 0.00 0.00 0.00 93 1016.4
20260903035607 61 173 0.0 1.0 0.00 0.00 0.00 93 1016.4
20260903035504 61 173 0.0 1.0 0.00 0.00 0.00 93 1016.4
20260903035307 61 173 0.0 1.0 0.00 0.00 0.00 93 1016.4
20260903035204 62 173 0.0 1.0 0.00 0.00 0.00 93 1016.5
20260903035104 62 173 0.0 1.0 0.00 0.00 0.00 93 1016.4
20260903035009 62 173 0.0 1.0 0.00 0.00 0.00 93 1016.4
20260903034905 62 173 0.0 1.0 0.00 0.00 0.00 93 1016.4
20260903034804 62 173 0.0 1.0 0.00 0.00 0.00 93 1016.4
20260903034604 62 173 0.0 1.0 0.00 0.00 0.00 93 1016.4
20260903034505 62 173 0.0 1.0 0.00 0.00 0.00 93 1016.5
20260903034408 62 173 0.0 0.0 0.00 0.00 0.00 93 1016.4
20260903034304 62 173 0.0 0.0 0.00 0.00 0.00 93 1016.4
20260903034204 62 173 0.0 0.0 0.00 0.00 0.00 93 1016.5
20260903034106 62 173 0.0 0.0 0.00 0.00 0.00 93 1016.5
20260903034006 62 173 0.0 1.0 0.00 0.00 0.00 93 1016.4
20260903033904 62 173 0.0 1.0 0.00 0.00 0.00 93 1016.4
20260903033807 62 173 0.0 2.0 0.00 0.00 0.00 93 1016.4
20260903033705 62 173 0.0 2.0 0.00 0.00 0.00 93 1016.3
20260903033604 62 173 0.0 2.0 0.00 0.00 0.00 93 1016.3
20260903033507 62 173 0.0 2.0 0.00 0.00 0.00 93 1016.4
20260903033305 62 173 0.0 2.0 0.00 0.00 0.00 93 1016.3
20260903033208 62 173 0.0 2.0 0.00 0.00 0.00 93 1016.3
20260903033105 62 173 0.0 2.0 0.00 0.00 0.00 93 1016.3
20260903033006 62 173 0.0 2.0 0.00 0.00 0.00 93 1016.3
20260903032906 62 173 1.0 2.0 0.00 0.00 0.00 93 1016.3
20260903032804 62 173 1.0 2.0 0.00 0.00 0.00 93 1016.3
20260903032704 62 173 1.0 2.0 0.00 0.00 0.00 93 1016.4
20260903032609 62 173 2.0 2.0 0.00 0.00 0.00 93 1016.4
20260903032504 62 173 1.0 2.0 0.00 0.00 0.00 93 1016.4
20260903032404 62 173 1.0 3.0 0.00 0.00 0.00 93 1016.3
20260903032307 62 173 1.0 3.0 0.00 0.00 0.00 93 1016.4
20260903032204 62 173 1.0 3.0 0.00 0.00 0.00 93 1016.4
20260903032105 62 173 1.0 3.0 0.00 0.00 0.00 93 1016.3
20260903031904 62 173 1.0 3.0 0.00 0.00 0.00 93 1016.3
20260903031804 62 173 2.0 4.0 0.00 0.00 0.00 93 1016.3
20260903031707 62 173 1.0 4.0 0.00 0.00 0.00 93 1016.3
20260903031604 62 173 2.0 4.0 0.00 0.00 0.00 93 1016.3
20260903031505 62 173 2.0 4.0 0.00 0.00 0.00 93 1016.2
20260903031407 62 173 2.0 4.0 0.00 0.00 0.00 93 1016.2
20260903031304 62 173 2.0 4.0 0.00 0.00 0.00 93 1016.3
20260903031204 62 173 2.0 4.0 0.00 0.00 0.00 93 1016.3
20260903031107 62 173 3.0 4.0 0.00 0.00 0.00 93 1016.2
20260903031005 62 173 3.0 4.0 0.00 0.00 0.00 93 1016.3
20260903030905 62 173 3.0 4.0 0.00 0.00 0.00 93 1016.3
20260903030808 62 173 3.0 4.0 0.00 0.00 0.00 93 1016.3
20260903030704 62 173 4.0 4.0 0.00 0.00 0.00 93 1016.3
20260903030507 62 173 3.0 4.0 0.00 0.00 0.00 92 1016.3
20260903030403 62 173 4.0 4.0 0.00 0.00 0.00 92 1016.3
20260903030206 62 173 4.0 4.0 0.00 0.00 0.00 92 1016.3
20260903030007 62 173 2.0 3.0 0.00 0.00 0.00 92 1016.3
20260903025908 62 173 1.0 3.0 0.00 0.00 0.00 92 1016.4
20260903025804 62 173 1.0 3.0 0.00 0.00 0.00 92 1016.4
20260903025704 62 173 1.0 3.0 0.00 0.00 0.00 92 1016.3
20260903025607 62 173 1.0 3.0 0.00 0.00 0.00 92 1016.3
20260903025504 62 173 2.0 3.0 0.00 0.00 0.00 92 1016.4
20260903025405 62 173 2.0 2.0 0.00 0.00 0.00 92 1016.3
20260903025307 62 173 1.0 2.0 0.00 0.00 0.00 92 1016.4
20260903025203 62 173 1.0 2.0 0.00 0.00 0.00 92 1016.4
20260903025009 62 173 1.0 3.0 0.00 0.00 0.00 92 1016.4
20260903024904 62 173 1.0 3.0 0.00 0.00 0.00 92 1016.3
20260903024804 62 173 1.0 3.0 0.00 0.00 0.00 92 1016.4
20260903024707 62 173 1.0 3.0 0.00 0.00 0.00 92 1016.4
20260903024604 62 173 0.0 3.0 0.00 0.00 0.00 92 1016.4
20260903024406 62 173 1.0 3.0 0.00 0.00 0.00 92 1016.3
20260903024304 62 173 1.0 3.0 0.00 0.00 0.00 92 1016.4
20260903024204 62 173 1.0 3.0 0.00 0.00 0.00 92 1016.4
20260903024106 62 173 2.0 3.0 0.00 0.00 0.00 92 1016.4
20260903024004 62 173 2.0 3.0 0.00 0.00 0.00 92 1016.4
20260903023807 62 173 0.0 3.0 0.00 0.00 0.00 92 1016.4
20260903023705 62 173 0.0 3.0 0.00 0.00 0.00 92 1016.4
20260903023605 62 173 1.0 3.0 0.00 0.00 0.00 92 1016.4
20260903023507 62 173 2.0 3.0 0.00 0.00 0.00 92 1016.4
20260903023404 62 173 2.0 3.0 0.00 0.00 0.00 92 1016.4
20260903023305 62 173 2.0 3.0 0.00 0.00 0.00 92 1016.4
20260903023104 62 173 2.0 2.0 0.00 0.00 0.00 92 1016.4
20260903023005 62 173 1.0 2.0 0.00 0.00 0.00 92 1016.4
20260903022906 62 173 1.0 2.0 0.00 0.00 0.00 92 1016.5
20260903022805 62 173 2.0 2.0 0.00 0.00 0.00 92 1016.5
20260903022705 62 173 1.0 2.0 0.00 0.00 0.00 91 1016.4
20260903022607 62 173 1.0 1.0 0.00 0.00 0.00 92 1016.5
20260903022504 62 173 0.0 1.0 0.00 0.00 0.00 92 1016.5
20260903022307 62 173 0.0 1.0 0.00 0.00 0.00 92 1016.5
20260903022204 62 173 0.0 1.0 0.00 0.00 0.00 92 1016.5
20260903022104 62 173 0.0 1.0 0.00 0.00 0.00 92 1016.4
20260903022009 62 173 0.0 1.0 0.00 0.00 0.00 92 1016.4
20260903021905 62 173 0.0 1.0 0.00 0.00 0.00 92 1016.4
20260903021707 62 173 0.0 1.0 0.00 0.00 0.00 92 1016.4
20260903021604 62 173 0.0 1.0 0.00 0.00 0.00 92 1016.5
20260903021505 62 173 0.0 1.0 0.00 0.00 0.00 92 1016.5
20260903021407 62 173 0.0 1.0 0.00 0.00 0.00 92 1016.4
20260903021304 62 173 0.0 1.0 0.00 0.00 0.00 91 1016.4
20260903021204 62 173 1.0 1.0 0.00 0.00 0.00 91 1016.4
20260903021107 63 173 1.0 1.0 0.00 0.00 0.00 91 1016.4
20260903021006 63 173 0.0 1.0 0.00 0.00 0.00 91 1016.4
20260903020904 63 173 0.0 1.0 0.00 0.00 0.00 91 1016.4
20260903020807 63 173 0.0 1.0 0.00 0.00 0.00 91 1016.4
20260903020404 63 173 0.0 1.0 0.00 0.00 0.00 91 1016.4
20260903020304 63 173 0.0 1.0 0.00 0.00 0.00 91 1016.4
20260903020206 63 173 0.0 1.0 0.00 0.00 0.00 91 1016.4
20260903020128 63 173 0.0 1.0 0.00 0.00 0.00 91 1016.4
20260903015907 63 173 0.0 1.0 0.00 0.00 0.00 91 1016.4
20260903015805 63 173 0.0 1.0 0.00 0.00 0.00 91 1016.4
20260903015704 63 173 0.0 1.0 0.00 0.00 0.00 92 1016.4
20260903015607 63 173 0.0 1.0 0.00 0.00 0.00 92 1016.4
20260903015504 63 173 0.0 1.0 0.00 0.00 0.00 92 1016.4
20260903015404 63 173 0.0 1.0 0.00 0.00 0.00 92 1016.4
20260903015204 63 173 0.0 2.0 0.00 0.00 0.00 91 1016.4
20260903015104 63 173 0.0 2.0 0.00 0.00 0.00 91 1016.4
20260903014804 63 173 0.0 2.0 0.00 0.00 0.00 91 1016.4
20260903014707 63 173 0.0 2.0 0.00 0.00 0.00 91 1016.5
20260903014604 63 173 0.0 2.0 0.00 0.00 0.00 91 1016.5
20260903014503 63 173 0.0 2.0 0.00 0.00 0.00 91 1016.5
20260903014305 63 173 0.0 2.0 0.00 0.00 0.00 91 1016.5
20260903014005 63 173 0.0 2.0 0.00 0.00 0.00 91 1016.5
20260903013604 63 173 0.0 2.0 0.00 0.00 0.00 90 1016.4
20260903013507 63 173 0.0 2.0 0.00 0.00 0.00 91 1016.4
20260903013404 63 173 0.0 2.0 0.00 0.00 0.00 92 1016.4
20260903013305 63 173 1.0 2.0 0.00 0.00 0.00 91 1016.3
20260903013207 63 173 2.0 2.0 0.00 0.00 0.00 91 1016.3
20260903013105 63 173 1.0 2.0 0.00 0.00 0.00 91 1016.4
20260903012907 64 173 1.0 2.0 0.00 0.00 0.00 91 1016.4
20260903012804 64 173 0.0 2.0 0.00 0.00 0.00 91 1016.4
20260903012704 64 173 0.0 2.0 0.00 0.00 0.00 91 1016.4
20260903012607 64 173 0.0 2.0 0.00 0.00 0.00 91 1016.4
20260903012504 64 173 0.0 2.0 0.00 0.00 0.00 91 1016.3
20260903012404 64 173 0.0 2.0 0.00 0.00 0.00 91 1016.3
20260903012307 64 173 0.0 2.0 0.00 0.00 0.00 91 1016.3
20260903012204 64 173 0.0 4.0 0.00 0.00 0.00 91 1016.3
20260903012104 64 173 1.0 4.0 0.00 0.00 0.00 91 1016.3
20260903012008 64 173 1.0 4.0 0.00 0.00 0.00 91 1016.3
20260903011804 64 173 1.0 4.0 0.00 0.00 0.00 91 1016.3
20260903011707 64 173 1.0 4.0 0.00 0.00 0.00 91 1016.3
20260903011604 64 173 0.0 4.0 0.00 0.00 0.00 91 1016.3
20260903011407 64 173 2.0 4.0 0.00 0.00 0.00 90 1016.3
20260903011305 64 173 1.0 4.0 0.00 0.00 0.00 90 1016.2
20260903011204 64 173 3.0 4.0 0.00 0.00 0.00 90 1016.3
20260903011107 64 173 3.0 4.0 0.00 0.00 0.00 90 1016.3
20260903011005 64 173 3.0 4.0 0.00 0.00 0.00 90 1016.2
20260903010904 64 173 3.0 4.0 0.00 0.00 0.00 90 1016.2
20260903010705 64 173 3.0 4.0 0.00 0.00 0.00 90 1016.2
20260903010604 64 173 3.0 3.0 0.00 0.00 0.00 90 1016.2
20260903010507 64 173 3.0 3.0 0.00 0.00 0.00 90 1016.2
20260903010404 64 173 1.0 3.0 0.00 0.00 0.00 90 1016.2
20260903010304 64 173 2.0 3.0 0.00 0.00 0.00 90 1016.3
20260903010207 64 173 2.0 2.0 0.00 0.00 0.00 90 1016.3
20260903010105 64 173 2.0 2.0 0.00 0.00 0.00 90 1016.3
20260903005907 64 173 1.0 2.0 0.00 0.00 0.00 90 1016.3
20260903005804 64 173 2.0 2.0 0.00 0.00 0.00 90 1016.2
20260903005705 64 173 1.0 2.0 0.00 0.00 0.00 90 1016.2
20260903005607 64 173 1.0 2.0 0.00 0.00 0.00 90 1016.2
20260903005504 64 173 1.0 2.0 0.00 0.00 0.00 90 1016.2
20260903005404 64 173 1.0 2.0 0.00 0.00 0.00 90 1016.2
20260903005205 64 173 2.0 2.0 0.00 0.00 0.00 90 1016.2
20260903005105 64 173 1.0 2.0 0.00 0.00 0.00 90 1016.2
20260903005008 64 173 1.0 2.0 0.00 0.00 0.00 90 1016.2
20260903004804 64 173 2.0 2.0 0.00 0.00 0.00 90 1016.2
20260903004708 64 173 2.0 2.0 0.00 0.00 0.00 90 1016.2
20260903004604 64 173 1.0 2.0 0.00 0.00 0.00 90 1016.2
20260903004504 64 173 1.0 2.0 0.00 0.00 0.00 90 1016.2
20260903004406 64 173 1.0 2.0 0.00 0.00 0.00 90 1016.1
20260903004304 64 173 2.0 2.0 0.00 0.00 0.00 90 1016.2
20260903004204 64 173 2.0 3.0 0.00 0.00 0.00 90 1016.2
20260903004107 65 173 2.0 3.0 0.00 0.00 0.00 90 1016.2
20260903003807 65 173 1.0 3.0 0.00 0.00 0.00 90 1016.1
20260903003704 65 173 1.0 3.0 0.00 0.00 0.00 90 1016.2
20260903003604 65 173 2.0 3.0 0.00 0.00 0.00 90 1016.2
20260903003507 65 173 1.0 3.0 0.00 0.00 0.00 90 1016.1
20260903003404 65 173 2.0 3.0 0.00 0.00 0.00 90 1016.1
20260903003305 65 173 2.0 4.0 0.00 0.00 0.00 90 1016.1
20260903003209 65 173 2.0 4.0 0.00 0.00 0.00 90 1016.1
20260903003104 65 173 2.0 4.0 0.00 0.00 0.00 90 1016.2
20260903003006 65 173 3.0 5.0 0.00 0.00 0.00 90 1016.1
20260903002607 65 173 3.0 5.0 0.00 0.00 0.00 90 1016.2
20260903002504 65 173 0.0 5.0 0.00 0.00 0.00 90 1016.2
20260903002405 65 173 1.0 5.0 0.00 0.00 0.00 90 1016.1
20260903002307 65 173 3.0 5.0 0.00 0.00 0.00 90 1016.2
20260903002204 65 173 3.0 5.0 0.00 0.00 0.00 90 1016.2
20260903002104 65 173 3.0 6.0 0.00 0.00 0.00 90 1016.2
20260903001904 65 173 4.0 6.0 0.00 0.00 0.00 90 1016.2
20260903001804 65 173 4.0 6.0 0.00 0.00 0.00 90 1016.2
20260903001707 65 173 4.0 6.0 0.00 0.00 0.00 90 1016.1
20260903001604 65 173 4.0 6.0 0.00 0.00 0.00 90 1016.1
20260903001504 65 173 5.0 6.0 0.00 0.00 0.00 89 1016.1
20260903001407 64 173 5.0 6.0 0.00 0.00 0.00 89 1016.1
20260903001305 64 173 4.0 6.0 0.00 0.00 0.00 89 1016.2
20260903001204 64 173 4.0 6.0 0.00 0.00 0.00 89 1016.2
20260903001107 64 173 6.0 6.0 0.00 0.00 0.00 89 1016.1
20260903000904 64 173 5.0 6.0 0.00 0.00 0.00 89 1016.2
20260903000604 64 167 4.0 5.0 0.00 0.00 0.00 89 1016.3
20260903000508 64 167 4.0 4.0 0.00 0.00 0.00 89 1016.2
20260903000404 64 76 3.0 4.0 0.00 0.00 0.00 89 1016.3
20260903000304 64 76 3.0 3.0 0.00 0.00 0.00 89 1016.3
20260903000131 64 76 1.0 3.0 0.00 0.00 0.00 89 1016.3
20260902235904 64 76 0.0 3.0 0.00 0.00 0.00 89 1016.3
20260902235806 64 76 1.0 4.0 0.00 0.00 0.00 89 1016.4
20260902235705 64 23 1.0 4.0 0.00 0.00 0.00 88 1016.3
20260902235604 64 23 1.0 4.0 0.00 0.00 0.00 88 1016.4
20260902235507 64 23 0.0 4.0 0.00 0.00 0.00 88 1016.4
20260902235404 64 23 1.0 4.0 0.00 0.00 0.00 88 1016.4
20260902235306 64 23 2.0 4.0 0.00 0.00 0.00 88 1016.4
20260902235206 64 23 2.0 4.0 0.00 0.00 0.00 88 1016.4
20260902235104 64 23 1.0 4.0 0.00 0.00 0.00 88 1016.4
20260902235005 64 23 1.0 4.0 0.00 0.00 0.00 88 1016.4
20260902234907 64 23 2.0 4.0 0.00 0.00 0.00 88 1016.5
20260902234804 64 23 2.0 4.0 0.00 0.00 0.00 88 1016.5
20260902234607 65 23 3.0 3.0 0.00 0.00 0.00 88 1016.4
20260902234506 65 23 2.0 3.0 0.00 0.00 0.00 88 1016.4
20260902234405 65 23 3.0 3.0 0.00 0.00 0.00 88 1016.5
20260902234307 65 23 2.0 3.0 0.00 0.00 0.00 88 1016.4
20260902234007 65 23 0.0 3.0 0.00 0.00 0.00 88 1016.4
20260902233903 65 23 0.0 3.0 0.00 0.00 0.00 88 1016.4
20260902233707 65 23 1.0 3.0 0.00 0.00 0.00 88 1016.4
20260902233604 65 23 2.0 3.0 0.00 0.00 0.00 88 1016.4
20260902233504 65 23 2.0 3.0 0.00 0.00 0.00 88 1016.4
20260902233407 65 23 2.0 3.0 0.00 0.00 0.00 88 1016.4
20260902233304 65 23 2.0 3.0 0.00 0.00 0.00 88 1016.4
20260902233204 65 23 2.0 3.0 0.00 0.00 0.00 88 1016.3
20260902233107 65 23 2.0 3.0 0.00 0.00 0.00 88 1016.4
20260902233005 65 23 2.0 3.0 0.00 0.00 0.00 88 1016.3
20260902232904 65 23 2.0 3.0 0.00 0.00 0.00 88 1016.3
20260902232605 65 23 2.0 4.0 0.00 0.00 0.00 88 1016.3
20260902232507 65 23 2.0 4.0 0.00 0.00 0.00 88 1016.3
20260902232207 65 23 1.0 4.0 0.00 0.00 0.00 88 1016.3
20260902232105 65 23 2.0 4.0 0.00 0.00 0.00 88 1016.3
20260902232004 65 23 2.0 4.0 0.00 0.00 0.00 88 1016.3
20260902231906 65 23 3.0 4.0 0.00 0.00 0.00 88 1016.3
20260902231804 65 23 2.0 4.0 0.00 0.00 0.00 88 1016.3
20260902231704 65 23 3.0 4.0 0.00 0.00 0.00 88 1016.3
20260902231607 65 23 3.0 4.0 0.00 0.00 0.00 88 1016.3
20260902231504 65 23 2.0 4.0 0.00 0.00 0.00 88 1016.3
20260902231404 65 23 2.0 4.0 0.00 0.00 0.00 88 1016.2
20260902231307 65 23 3.0 4.0 0.00 0.00 0.00 88 1016.3
20260902231204 65 23 2.0 4.0 0.00 0.00 0.00 88 1016.2
20260902231104 65 23 3.0 4.0 0.00 0.00 0.00 88 1016.2
20260902231009 65 23 4.0 4.0 0.00 0.00 0.00 88 1016.2
20260902230904 65 351 3.0 3.0 0.00 0.00 0.00 88 1016.2
20260902230804 65 291 1.0 3.0 0.00 0.00 0.00 88 1016.3
20260902230604 65 291 2.0 3.0 0.00 0.00 0.00 89 1016.2
20260902230406 65 291 1.0 3.0 0.00 0.00 0.00 89 1016.2
20260902230304 65 291 1.0 3.0 0.00 0.00 0.00 89 1016.2
20260902230107 65 291 0.0 3.0 0.00 0.00 0.00 88 1016.1
20260902230007 65 291 0.0 3.0 0.00 0.00 0.00 88 1016.1
20260902225904 65 291 1.0 3.0 0.00 0.00 0.00 88 1016.1
20260902225807 65 291 1.0 3.0 0.00 0.00 0.00 88 1016.1
20260902225704 65 291 2.0 3.0 0.00 0.00 0.00 88 1016.1
20260902225604 65 291 2.0 3.0 0.00 0.00 0.00 88 1016.1
20260902225507 65 291 2.0 3.0 0.00 0.00 0.00 88 1016.1
20260902225404 65 291 3.0 3.0 0.00 0.00 0.00 88 1016.1
20260902225306 65 291 2.0 3.0 0.00 0.00 0.00 88 1016.1
20260902225206 65 291 2.0 3.0 0.00 0.00 0.00 88 1016.1
20260902225104 65 291 3.0 3.0 0.00 0.00 0.00 88 1016.1
20260902225005 65 291 2.0 3.0 0.00 0.00 0.00 88 1016.2
20260902224907 65 291 2.0 3.0 0.00 0.00 0.00 88 1016.2
20260902224805 65 291 3.0 3.0 0.00 0.00 0.00 88 1016.1
20260902224704 65 291 2.0 3.0 0.00 0.00 0.00 88 1016.2
20260902224607 65 291 2.0 3.0 0.00 0.00 0.00 88 1016.2
20260902224504 65 291 2.0 3.0 0.00 0.00 0.00 88 1016.1
20260902224404 65 291 2.0 3.0 0.00 0.00 0.00 88 1016.1
20260902224307 65 291 2.0 3.0 0.00 0.00 0.00 88 1016.1
20260902224204 65 291 2.0 3.0 0.00 0.00 0.00 88 1016.1
20260902224104 65 291 1.0 3.0 0.00 0.00 0.00 87 1016.1
20260902224008 65 291 2.0 3.0 0.00 0.00 0.00 87 1016.1
20260902223904 65 291 2.0 3.0 0.00 0.00 0.00 87 1016.1
20260902223804 65 291 2.0 3.0 0.00 0.00 0.00 87 1016.1
20260902223604 65 291 3.0 3.0 0.00 0.00 0.00 87 1016.1
20260902223504 65 291 3.0 3.0 0.00 0.00 0.00 87 1016.1
20260902223406 65 291 3.0 3.0 0.00 0.00 0.00 87 1016.2
20260902223304 65 291 2.0 3.0 0.00 0.00 0.00 87 1016.1
20260902223204 65 291 3.0 3.0 0.00 0.00 0.00 87 1016.1
20260902223107 65 291 2.0 2.0 0.00 0.00 0.00 87 1016.1
20260902223005 65 291 2.0 2.0 0.00 0.00 0.00 87 1016.1
20260902222808 66 291 0.0 1.0 0.00 0.00 0.00 87 1016.1
20260902222704 66 291 0.0 1.0 0.00 0.00 0.00 87 1016.1
20260902222604 66 291 0.0 1.0 0.00 0.00 0.00 87 1016.1
20260902222506 66 291 0.0 1.0 0.00 0.00 0.00 87 1016.1
20260902222306 66 291 0.0 1.0 0.00 0.00 0.00 87 1016.1
20260902222207 66 291 0.0 1.0 0.00 0.00 0.00 87 1016.1
20260902222105 66 291 0.0 1.0 0.00 0.00 0.00 87 1016.1
20260902222005 66 291 0.0 1.0 0.00 0.00 0.00 87 1016.1
20260902221907 66 291 0.0 2.0 0.00 0.00 0.00 86 1016.2
20260902221805 66 291 1.0 2.0 0.00 0.00 0.00 86 1016.2
20260902221704 66 291 0.0 2.0 0.00 0.00 0.00 86 1016.2
20260902221606 66 291 0.0 3.0 0.00 0.00 0.00 86 1016.2
20260902221504 66 291 0.0 3.0 0.00 0.00 0.00 86 1016.2
20260902221404 66 291 0.0 3.0 0.00 0.00 0.00 86 1016.1
20260902221307 66 291 0.0 3.0 0.00 0.00 0.00 86 1016.2
20260902221204 66 291 0.0 3.0 0.00 0.00 0.00 86 1016.2
20260902221104 66 291 0.0 3.0 0.00 0.00 0.00 86 1016.1
20260902221007 66 291 1.0 3.0 0.00 0.00 0.00 86 1016.2
20260902220904 66 291 2.0 3.0 0.00 0.00 0.00 86 1016.1
20260902220804 66 291 1.0 3.0 0.00 0.00 0.00 86 1016.1
20260902220604 66 291 2.0 3.0 0.00 0.00 0.00 86 1016.1
20260902220505 66 291 3.0 3.0 0.00 0.00 0.00 86 1016.1
20260902220406 66 291 2.0 3.0 0.00 0.00 0.00 86 1016.1
20260902220304 66 291 3.0 3.0 0.00 0.00 0.00 86 1016.2
20260902220204 66 291 2.0 3.0 0.00 0.00 0.00 86 1016.1
20260902220129 66 291 2.0 3.0 0.00 0.00 0.00 86 1016.2
20260902220024 66 291 2.0 3.0 0.00 0.00 0.00 86 1016.2
20260902215905 66 291 2.0 3.0 0.00 0.00 0.00 86 1016.1
20260902215804 66 291 2.0 3.0 0.00 0.00 0.00 85 1016.1
20260902215605 66 291 2.0 2.0 0.00 0.00 0.00 85 1016.1
20260902215505 66 291 1.0 2.0 0.00 0.00 0.00 85 1016.1
20260902215408 66 291 0.0 2.0 0.00 0.00 0.00 85 1016.1
20260902215306 66 291 0.0 2.0 0.00 0.00 0.00 85 1016.1
20260902215107 66 291 1.0 3.0 0.00 0.00 0.00 85 1016.1
20260902214905 66 291 2.0 3.0 0.00 0.00 0.00 85 1016.1
20260902214808 66 291 2.0 3.0 0.00 0.00 0.00 85 1016.1
20260902214604 66 291 0.0 3.0 0.00 0.00 0.00 85 1016.1
20260902214404 66 291 1.0 3.0 0.00 0.00 0.00 85 1016.1
20260902214208 66 291 2.0 3.0 0.00 0.00 0.00 85 1016.1
20260902214006 66 291 2.0 3.0 0.00 0.00 0.00 85 1016.1
20260902213907 66 291 2.0 3.0 0.00 0.00 0.00 85 1016.1
20260902213805 66 291 2.0 3.0 0.00 0.00 0.00 85 1016.1
20260902213705 66 291 1.0 3.0 0.00 0.00 0.00 85 1016.0
20260902213505 66 291 1.0 3.0 0.00 0.00 0.00 85 1016.0
20260902213405 66 291 2.0 3.0 0.00 0.00 0.00 85 1016.0
20260902213308 67 291 2.0 3.0 0.00 0.00 0.00 85 1016.0
20260902213205 67 291 3.0 3.0 0.00 0.00 0.00 84 1016.0
20260902212905 67 36 3.0 3.0 0.00 0.00 0.00 84 1015.9
20260902212805 67 36 2.0 3.0 0.00 0.00 0.00 84 1015.9
20260902212708 67 36 2.0 2.0 0.00 0.00 0.00 84 1015.9
20260902212505 67 36 1.0 2.0 0.00 0.00 0.00 84 1016.0
20260902212408 67 36 1.0 1.0 0.00 0.00 0.00 84 1015.9
20260902212306 67 36 0.0 1.0 0.00 0.00 0.00 84 1015.9
20260902212205 67 36 0.0 1.0 0.00 0.00 0.00 84 1016.0
20260902212108 67 36 0.0 2.0 0.00 0.00 0.00 84 1015.9
20260902211905 67 36 0.0 2.0 0.00 0.00 0.00 83 1015.9
20260902211807 67 36 0.0 2.0 0.00 0.00 0.00 83 1015.9
20260902211605 67 36 0.0 2.0 0.00 0.00 0.00 83 1015.8
20260902211508 67 36 0.0 3.0 0.00 0.00 0.00 83 1015.8
20260902211405 67 36 0.0 3.0 0.00 0.00 0.00 83 1015.8
20260902211306 67 36 0.0 3.0 0.00 0.00 0.00 83 1015.8
20260902211207 67 36 0.0 3.0 0.00 0.00 0.00 82 1015.8
20260902211006 67 36 2.0 3.0 0.00 0.00 0.00 82 1015.8
20260902210908 68 36 2.0 3.0 0.00 0.00 0.00 82 1015.8
20260902210806 68 36 2.0 3.0 0.00 0.00 0.00 82 1015.8
20260902210705 68 36 2.0 3.0 0.00 0.00 0.00 82 1015.8
20260902210505 68 36 2.0 2.0 0.00 0.00 0.00 82 1015.7
20260902210404 68 36 1.0 1.0 0.00 0.00 0.00 82 1015.8
20260902210308 68 36 1.0 1.0 0.00 0.00 0.00 82 1015.7
20260902210205 68 36 1.0 1.0 0.00 0.00 0.00 82 1015.7
20260902210105 68 36 1.0 1.0 0.00 0.00 0.00 82 1015.7
20260902205905 68 36 0.0 1.0 0.00 0.00 0.00 82 1015.7
20260902205805 68 36 0.0 1.0 0.00 0.00 0.00 82 1015.7
20260902205708 68 36 0.0 1.0 0.00 0.00 0.00 82 1015.7
20260902205605 68 36 0.0 1.0 0.00 0.00 0.00 82 1015.7
20260902205306 68 36 0.0 2.0 0.00 0.00 0.00 82 1015.6
20260902205206 68 36 0.0 2.0 0.00 0.00 0.00 81 1015.6
20260902205006 68 36 0.0 2.0 0.00 0.00 0.00 81 1015.5
20260902204905 68 36 0.0 2.0 0.00 0.00 0.00 81 1015.5
20260902204809 68 36 0.0 2.0 0.00 0.00 0.00 81 1015.5
20260902204706 68 36 0.0 2.0 0.00 0.00 0.00 81 1015.5
20260902204605 68 36 0.0 3.0 0.00 0.00 0.00 81 1015.6
20260902204508 68 36 0.0 3.0 0.00 0.00 0.00 80 1015.6
20260902204406 68 36 1.0 3.0 0.00 0.00 0.00 80 1015.5
20260902204208 69 36 2.0 3.0 0.00 0.00 0.00 80 1015.6
20260902204105 69 36 1.0 4.0 0.00 0.00 0.00 80 1015.5
20260902204006 69 36 1.0 4.0 0.00 0.00 0.00 80 1015.6
20260902203907 69 36 2.0 4.0 0.00 0.00 0.00 80 1015.6
20260902203806 69 36 1.0 4.0 0.00 0.00 0.00 80 1015.6
20260902203704 69 36 1.0 4.0 0.00 0.00 0.00 80 1015.6
20260902203505 69 36 3.0 4.0 0.00 0.00 0.00 80 1015.5
20260902203405 69 36 2.0 4.0 0.00 0.00 0.00 80 1015.5
20260902203309 69 36 3.0 4.0 0.00 0.00 0.00 80 1015.6
20260902203205 69 36 3.0 4.0 0.00 0.00 0.00 80 1015.6
20260902202907 69 36 3.0 4.0 0.00 0.00 0.00 80 1015.6
20260902202806 69 36 3.0 3.0 0.00 0.00 0.00 80 1015.6
20260902202708 69 36 2.0 3.0 0.00 0.00 0.00 80 1015.6
20260902202606 69 36 2.0 3.0 0.00 0.00 0.00 80 1015.6
20260902202506 69 36 3.0 3.0 0.00 0.00 0.00 80 1015.6
20260902202408 69 36 2.0 3.0 0.00 0.00 0.00 80 1015.6
20260902202306 69 36 2.0 3.0 0.00 0.00 0.00 80 1015.6
20260902202109 69 36 2.0 3.0 0.00 0.00 0.00 79 1015.6
20260902202007 69 36 1.0 3.0 0.00 0.00 0.00 79 1015.6
20260902201905 70 36 2.0 3.0 0.00 0.00 0.00 79 1015.5
20260902201809 70 36 2.0 3.0 0.00 0.00 0.00 79 1015.6
20260902201705 70 36 2.0 3.0 0.00 0.00 0.00 79 1015.5
20260902201508 70 36 2.0 3.0 0.00 0.00 0.00 79 1015.6
20260902201406 70 36 2.0 3.0 0.00 0.00 0.00 79 1015.6
20260902201208 70 36 2.0 3.0 0.00 0.00 0.00 79 1015.6
20260902201106 70 36 3.0 3.0 0.00 0.00 0.00 79 1015.5
20260902201012 70 36 2.0 3.0 0.00 0.00 0.00 79 1015.5
20260902200907 70 36 0.0 3.0 0.00 0.00 0.00 78 1015.5
20260902200805 70 36 0.0 3.0 0.00 0.00 0.00 78 1015.5
20260902200705 70 36 0.0 3.0 0.00 0.00 0.00 78 1015.5
20260902200406 70 36 2.0 3.0 0.00 0.00 0.00 77 1015.5
20260902200310 70 36 2.0 3.0 0.00 0.00 0.00 77 1015.4
20260902195905 70 36 3.0 3.0 0.00 0.00 0.00 77 1015.4
20260902195805 70 36 3.0 4.0 0.00 0.00 0.00 77 1015.4
20260902195707 71 36 3.0 4.0 0.00 0.00 0.00 77 1015.4
20260902195605 71 36 2.0 4.0 0.00 0.00 0.00 77 1015.4
20260902195505 71 36 1.0 4.0 0.00 0.00 0.00 78 1015.4
20260902195306 71 36 2.0 4.0 0.00 0.00 0.00 78 1015.4
20260902195205 71 36 2.0 4.0 0.00 0.00 0.00 77 1015.4
20260902195109 71 36 2.0 4.0 0.00 0.00 0.00 77 1015.5
20260902194905 71 36 2.0 4.0 0.00 0.00 0.00 78 1015.4
20260902194808 71 36 3.0 4.0 0.00 0.00 0.00 78 1015.4
20260902194708 71 36 4.0 4.0 0.00 0.00 0.00 78 1015.4
20260902194509 71 286 3.0 4.0 0.00 0.00 0.00 78 1015.4
20260902194406 71 286 3.0 3.0 0.00 0.00 0.00 78 1015.4
20260902194306 71 286 3.0 3.0 0.00 0.00 0.00 78 1015.4
20260902194209 71 286 2.0 3.0 0.00 0.00 0.00 78 1015.4
20260902194106 71 286 2.0 3.0 0.00 0.00 0.00 77 1015.4
20260902193907 71 286 1.0 3.0 0.00 0.00 0.00 77 1015.4
20260902193804 71 286 0.0 3.0 0.00 0.00 0.00 77 1015.4
20260902193609 71 286 1.0 3.0 0.00 0.00 0.00 77 1015.4
20260902193504 72 286 0.0 3.0 0.00 0.00 0.00 76 1015.4
20260902193307 72 286 1.0 3.0 0.00 0.00 0.00 76 1015.4
20260902193205 72 286 1.0 3.0 0.00 0.00 0.00 76 1015.4
20260902193105 72 286 2.0 3.0 0.00 0.00 0.00 76 1015.3
20260902193009 72 286 1.0 3.0 0.00 0.00 0.00 75 1015.3
20260902192904 72 286 2.0 3.0 0.00 0.00 0.00 75 1015.3
20260902192804 72 286 3.0 3.0 0.00 0.00 0.00 75 1015.3
20260902192707 72 286 1.0 2.0 0.00 0.00 0.00 75 1015.3
20260902192606 72 286 1.0 3.0 0.00 0.00 0.00 75 1015.4
20260902192505 72 286 1.0 3.0 0.00 0.00 0.00 75 1015.4
20260902192407 72 286 2.0 3.0 0.00 0.00 0.00 75 1015.4
20260902192307 72 286 1.0 3.0 0.00 0.00 0.00 75 1015.4
20260902192107 72 286 1.0 3.0 0.00 0.00 0.00 75 1015.3
20260902192006 72 286 1.0 3.0 0.00 0.00 0.00 75 1015.4
20260902191807 72 286 1.0 3.0 0.00 0.00 0.00 75 1015.4
20260902191705 72 286 1.0 3.0 0.00 0.00 0.00 75 1015.3
20260902191607 72 286 2.0 3.0 0.00 0.00 0.00 75 1015.4
20260902191509 72 286 2.0 3.0 0.00 0.00 0.00 75 1015.3
20260902191404 72 213 3.0 3.0 0.00 0.00 0.00 75 1015.3
20260902191306 73 213 1.0 3.0 0.00 0.00 0.00 75 1015.3
20260902191207 73 213 2.0 3.0 0.00 0.00 0.00 75 1015.3
20260902191106 73 213 2.0 3.0 0.00 0.00 0.00 75 1015.3
20260902190908 73 213 2.0 3.0 0.00 0.00 0.00 75 1015.3
20260902190805 73 213 2.0 3.0 0.00 0.00 0.00 75 1015.3
20260902190608 73 213 3.0 3.0 0.00 0.00 0.00 74 1015.2
20260902190505 73 213 3.0 3.0 0.00 0.00 0.00 74 1015.3
20260902190405 73 213 2.0 3.0 0.00 0.00 0.00 74 1015.2
20260902190308 73 213 2.0 3.0 0.00 0.00 0.00 75 1015.2
20260902190205 73 213 1.0 3.0 0.00 0.00 0.00 75 1015.3
20260902190105 73 213 1.0 4.0 0.00 0.00 0.00 75 1015.2
20260902190011 73 213 1.0 4.0 0.00 0.00 0.00 75 1015.2
20260902185904 73 213 0.0 4.0 0.00 0.00 0.00 75 1015.2
20260902185707 73 213 1.0 4.0 0.00 0.00 0.00 74 1015.2
20260902185606 73 213 2.0 4.0 0.00 0.00 0.00 74 1015.2
20260902185505 73 213 2.0 4.0 0.00 0.00 0.00 74 1015.2
20260902185408 73 213 2.0 4.0 0.00 0.00 0.00 74 1015.1
20260902185207 73 213 3.0 4.0 0.00 0.00 0.00 74 1015.1
20260902185108 73 213 3.0 4.0 0.00 0.00 0.00 73 1015.1
20260902185005 74 138 4.0 4.0 0.00 0.00 0.00 73 1015.0
20260902184906 74 138 3.0 4.0 0.00 0.00 0.00 73 1015.0
20260902184808 74 138 3.0 3.0 0.00 0.00 0.00 73 1015.0
20260902184706 74 138 3.0 3.0 0.00 0.00 0.00 73 1015.0
20260902184605 74 138 2.0 3.0 0.00 0.00 0.00 73 1015.0
20260902184405 74 138 3.0 3.0 0.00 0.00 0.00 72 1014.9
20260902184305 74 138 3.0 3.0 0.00 0.00 0.00 72 1014.9
20260902184207 74 138 2.0 2.0 0.00 0.00 0.00 71 1014.9
20260902184005 75 138 1.0 2.0 0.00 0.00 0.00 71 1014.9
20260902183908 75 138 1.0 2.0 0.00 0.00 0.00 71 1014.9
20260902183805 75 138 1.0 2.0 0.00 0.00 0.00 71 1014.9
20260902183608 75 138 1.0 1.0 0.00 0.00 0.00 71 1014.9
20260902183506 75 138 1.0 1.0 0.00 0.00 0.00 71 1014.9
20260902183405 75 138 0.0 1.0 0.00 0.00 0.00 70 1014.9
20260902183309 75 138 0.0 1.0 0.00 0.00 0.00 70 1014.9
20260902183206 75 138 0.0 1.0 0.00 0.00 0.00 70 1014.9
20260902183105 75 138 0.0 2.0 0.00 0.00 0.00 70 1014.9
20260902183009 76 138 0.0 2.0 0.00 0.00 0.00 70 1014.9
20260902182906 76 138 0.0 2.0 0.00 0.00 0.00 70 1014.9
20260902182805 76 138 0.0 2.0 0.00 0.00 0.00 69 1014.9
20260902182708 76 138 0.0 2.0 0.00 0.00 0.00 70 1014.9
20260902182605 76 138 0.0 2.0 0.00 0.00 0.00 69 1014.9
20260902182504 76 138 0.0 2.0 0.00 0.00 0.00 69 1014.8
20260902182306 77 138 1.0 2.0 0.00 0.00 0.00 68 1014.8
20260902182204 77 138 1.0 3.0 0.00 0.00 0.00 68 1014.8
20260902182005 77 138 1.0 3.0 0.00 0.00 0.00 67 1014.8
20260902181905 77 138 1.0 3.0 0.00 0.00 0.00 66 1014.8
20260902181808 77 138 1.0 3.0 0.00 0.00 0.00 66 1014.7
20260902181705 77 138 2.0 3.0 0.00 0.00 0.00 65 1014.7
20260902181607 78 138 2.0 3.0 0.00 0.00 0.00 65 1014.8
20260902181405 78 138 2.0 3.0 0.00 0.00 0.00 65 1014.7
20260902181305 78 138 2.0 4.0 0.00 0.00 0.00 64 1014.7
20260902181208 78 138 2.0 4.0 0.00 0.00 0.00 64 1014.8
20260902181105 78 138 3.0 4.0 0.00 0.00 0.00 64 1014.7
20260902181006 78 138 3.0 4.0 0.00 0.00 0.00 64 1014.7
20260902180907 78 138 2.0 4.0 0.00 0.00 0.00 64 1014.7
20260902180805 78 138 2.0 4.0 0.00 0.00 0.00 64 1014.7
20260902180705 78 138 2.0 4.0 0.00 0.00 0.00 64 1014.6
20260902180505 79 138 2.0 4.0 0.00 0.00 0.00 64 1014.6
20260902180405 79 138 3.0 4.0 0.00 0.00 0.00 63 1014.6
20260902180307 79 138 2.0 4.0 0.00 0.00 0.00 63 1014.6
20260902180134 79 138 2.0 4.0 0.00 0.00 0.00 63 1014.6
20260902175904 79 138 2.0 4.0 0.00 0.00 0.00 63 1014.7
20260902175805 79 138 3.0 4.0 0.00 0.00 0.00 63 1014.8
20260902175707 79 138 3.0 4.0 0.00 0.00 0.00 63 1014.7
20260902175408 79 138 4.0 5.0 0.00 0.00 0.00 62 1014.8
20260902175307 79 138 3.0 5.0 0.00 0.00 0.00 63 1014.7
20260902175205 79 138 3.0 5.0 0.00 0.00 0.00 63 1014.8
20260902175005 80 138 4.0 5.0 0.00 0.00 0.00 62 1014.7
20260902174905 80 138 3.0 5.0 0.00 0.00 0.00 62 1014.6
20260902174808 80 138 4.0 5.0 0.00 0.00 0.00 62 1014.6
20260902174705 80 138 2.0 5.0 0.00 0.00 0.00 62 1014.6
20260902174605 80 138 4.0 5.0 0.00 0.00 0.00 62 1014.6
20260902174508 80 138 4.0 5.0 0.00 0.00 0.00 62 1014.6
20260902174306 80 138 4.0 6.0 0.00 0.00 0.00 62 1014.6
20260902174207 80 138 4.0 6.0 0.00 0.00 0.00 62 1014.5
20260902174105 81 138 5.0 6.0 0.00 0.00 0.00 61 1014.6
20260902174006 81 138 4.0 6.0 0.00 0.00 0.00 61 1014.6
20260902173908 81 138 4.0 6.0 0.00 0.00 0.00 61 1014.6
20260902173805 81 138 5.0 6.0 0.00 0.00 0.00 61 1014.6
20260902173705 81 138 4.0 6.0 0.00 0.00 0.00 61 1014.6
20260902173607 81 138 5.0 6.0 0.00 0.00 0.00 61 1014.6
20260902173505 81 138 5.0 6.0 0.00 0.00 0.00 61 1014.5
20260902173404 81 126 4.0 6.0 0.00 0.00 0.00 61 1014.5
20260902173105 82 119 4.0 6.0 0.00 0.00 0.00 60 1014.5
20260902173010 82 119 3.0 6.0 0.00 0.00 0.00 60 1014.5
20260902172905 82 119 3.0 6.0 0.00 0.00 0.00 60 1014.5
20260902172706 82 119 4.0 6.0 0.00 0.00 0.00 60 1014.5
20260902172505 83 132 6.0 7.0 0.00 0.00 0.00 59 1014.4
20260902172407 83 115 4.0 7.0 0.00 0.00 0.00 59 1014.4
20260902172308 83 120 3.0 7.0 0.00 0.00 0.00 59 1014.4
20260902172205 83 112 4.0 7.0 0.00 0.00 0.00 58 1014.4
20260902172107 83 105 4.0 7.0 0.00 0.00 0.00 58 1014.4
20260902172006 83 88 3.0 7.0 0.00 0.00 0.00 57 1014.4
20260902171904 83 119 2.0 7.0 0.00 0.00 0.00 58 1014.4
20260902171808 83 93 5.0 7.0 0.00 0.00 0.00 57 1014.4
20260902171705 84 97 3.0 7.0 0.00 0.00 0.00 57 1014.4
20260902171604 84 99 3.0 7.0 0.00 0.00 0.00 57 1014.4
20260902171507 84 88 3.0 7.0 0.00 0.00 0.00 56 1014.4
20260902171405 84 103 2.0 7.0 0.00 0.00 0.00 56 1014.4
20260902171304 84 79 3.0 7.0 0.00 0.00 0.00 56 1014.4
20260902171207 84 110 2.0 7.0 0.00 0.00 0.00 56 1014.4
20260902171105 84 104 2.0 7.0 0.00 0.00 0.00 56 1014.4
20260902170908 85 104 2.0 7.0 0.00 0.00 0.00 55 1014.4
20260902170805 85 125 6.0 7.0 0.00 0.00 0.00 55 1014.4
20260902170705 85 127 5.0 7.0 0.00 0.00 0.00 55 1014.4
20260902170608 85 109 3.0 8.0 0.00 0.00 0.00 55 1014.4
20260902170505 85 123 4.0 8.0 0.00 0.00 0.00 55 1014.5
20260902170405 85 118 4.0 8.0 0.00 0.00 0.00 55 1014.4
20260902170307 86 121 4.0 8.0 0.00 0.00 0.00 55 1014.4
20260902170104 86 115 3.0 8.0 0.00 0.00 0.00 54 1014.4
20260902165805 86 123 4.0 8.0 0.00 0.00 0.00 54 1014.4
20260902165708 86 101 6.0 8.0 0.00 0.00 0.00 55 1014.3
20260902165605 86 106 7.0 7.0 0.00 0.00 0.00 54 1014.4
20260902165505 86 102 3.0 5.0 0.00 0.00 0.00 54 1014.4
20260902165407 86 102 2.0 5.0 0.00 0.00 0.00 54 1014.4
20260902165308 87 119 4.0 5.0 0.00 0.00 0.00 54 1014.4
20260902165108 87 108 3.0 9.0 0.00 0.00 0.00 54 1014.4
20260902164904 87 85 2.0 9.0 0.00 0.00 0.00 54 1014.4
20260902164808 87 116 2.0 9.0 0.00 0.00 0.00 53 1014.4
20260902164705 87 111 5.0 9.0 0.00 0.00 0.00 54 1014.4
20260902164605 87 115 3.0 9.0 0.00 0.00 0.00 53 1014.4
20260902164508 87 121 4.0 9.0 0.00 0.00 0.00 52 1014.4
20260902164405 87 136 4.0 9.0 0.00 0.00 0.00 52 1014.3
20260902164304 87 112 5.0 9.0 0.00 0.00 0.00 52 1014.3
20260902164207 87 94 6.0 9.0 0.00 0.00 0.00 53 1014.4
20260902164106 87 121 4.0 8.0 0.00 0.00 0.00 52 1014.4
20260902164006 87 93 2.0 8.0 0.00 0.00 0.00 52 1014.3
20260902163907 87 93 2.0 8.0 0.00 0.00 0.00 51 1014.4
20260902163805 87 107 3.0 8.0 0.00 0.00 0.00 51 1014.4
20260902163704 87 82 7.0 8.0 0.00 0.00 0.00 52 1014.4
20260902163607 87 88 6.0 7.0 0.00 0.00 0.00 52 1014.4
20260902163505 88 96 5.0 7.0 0.00 0.00 0.00 51 1014.4
20260902163405 88 77 3.0 7.0 0.00 0.00 0.00 52 1014.4
20260902163307 88 122 3.0 8.0 0.00 0.00 0.00 52 1014.4
20260902163205 88 103 2.0 8.0 0.00 0.00 0.00 52 1014.5
20260902163104 88 113 2.0 8.0 0.00 0.00 0.00 52 1014.5
20260902163010 88 113 0.0 8.0 0.00 0.00 0.00 51 1014.5
20260902162905 88 113 2.0 8.0 0.00 0.00 0.00 52 1014.5
20260902162804 88 119 4.0 8.0 0.00 0.00 0.00 51 1014.5
20260902162709 88 123 7.0 8.0 0.00 0.00 0.00 51 1014.5
20260902162605 88 103 4.0 8.0 0.00 0.00 0.00 50 1014.6
20260902162504 88 103 3.0 9.0 0.00 0.00 0.00 51 1014.6
20260902162307 88 93 7.0 9.0 0.00 0.00 0.00 50 1014.6
20260902162109 88 51 4.0 10.0 0.00 0.00 0.00 51 1014.6
20260902162006 88 58 3.0 10.0 0.00 0.00 0.00 52 1014.6
20260902161905 87 110 2.0 10.0 0.00 0.00 0.00 51 1014.6
20260902161807 87 98 6.0 10.0 0.00 0.00 0.00 51 1014.6
20260902161705 87 81 5.0 10.0 0.00 0.00 0.00 52 1014.5
20260902161606 87 74 4.0 10.0 0.00 0.00 0.00 52 1014.5
20260902161507 87 91 8.0 10.0 0.00 0.00 0.00 52 1014.5
20260902161304 87 76 5.0 10.0 0.00 0.00 0.00 52 1014.5
20260902161207 86 67 5.0 9.0 0.00 0.00 0.00 53 1014.5
20260902161105 86 90 7.0 9.0 0.00 0.00 0.00 53 1014.5
20260902161005 86 70 3.0 9.0 0.00 0.00 0.00 53 1014.5
20260902160907 86 67 9.0 9.0 0.00 0.00 0.00 54 1014.5
20260902160804 85 81 7.0 8.0 0.00 0.00 0.00 55 1014.6
20260902160705 85 98 5.0 8.0 0.00 0.00 0.00 54 1014.6
20260902160607 85 70 5.0 8.0 0.00 0.00 0.00 55 1014.6
20260902160505 85 75 4.0 7.0 0.00 0.00 0.00 55 1014.8
20260902160404 85 84 7.0 7.0 0.00 0.00 0.00 54 1014.8
20260902160307 85 78 7.0 7.0 0.00 0.00 0.00 54 1014.8
20260902160205 85 87 3.0 7.0 0.00 0.00 0.00 54 1014.9
20260902160118 85 78 5.0 7.0 0.00 0.00 0.00 54 1014.9
20260902160011 85 78 5.0 7.0 0.00 0.00 0.00 54 1014.9
20260902155805 85 76 4.0 6.0 0.00 0.00 0.00 54 1014.8
20260902155708 85 65 3.0 6.0 0.00 0.00 0.00 54 1014.9
20260902155605 86 94 6.0 6.0 0.00 0.00 0.00 53 1014.9
20260902155505 86 57 4.0 7.0 0.00 0.00 0.00 53 1014.9
20260902155407 86 57 3.0 7.0 0.00 0.00 0.00 53 1015.0
20260902155307 86 84 3.0 7.0 0.00 0.00 0.00 53 1014.9
20260902155205 86 75 5.0 7.0 0.00 0.00 0.00 53 1014.9
20260902155108 86 68 5.0 7.0 0.00 0.00 0.00 52 1014.9
20260902155005 86 61 2.0 7.0 0.00 0.00 0.00 52 1014.9
20260902154904 86 72 4.0 10.0 0.00 0.00 0.00 52 1014.9
20260902154808 86 66 4.0 10.0 0.00 0.00 0.00 52 1014.8
20260902154706 86 61 7.0 10.0 0.00 0.00 0.00 53 1014.8
20260902154603 87 38 4.0 10.0 0.00 0.00 0.00 51 1014.8
20260902154508 87 46 5.0 10.0 0.00 0.00 0.00 52 1014.9
20260902154405 87 30 5.0 10.0 0.00 0.00 0.00 51 1014.9
20260902154305 87 53 6.0 10.0 0.00 0.00 0.00 51 1014.9
20260902154207 87 43 4.0 10.0 0.00 0.00 0.00 51 1014.9
20260902154105 87 58 5.0 10.0 0.00 0.00 0.00 51 1014.9
20260902154004 88 67 7.0 10.0 0.00 0.00 0.00 51 1014.8
20260902153804 88 40 5.0 10.0 0.00 0.00 0.00 50 1014.8
20260902153608 88 51 3.0 10.0 0.00 0.00 0.00 50 1014.8
20260902153506 88 28 5.0 10.0 0.00 0.00 0.00 49 1014.8
20260902153405 89 28 3.0 10.0 0.00 0.00 0.00 50 1014.8
20260902153307 89 26 4.0 10.0 0.00 0.00 0.00 49 1014.7
20260902153205 89 33 7.0 10.0 0.00 0.00 0.00 48 1014.8
20260902153105 89 25 5.0 10.0 0.00 0.00 0.00 48 1014.8
20260902153009 89 42 5.0 13.0 0.00 0.00 0.00 47 1014.8
20260902152905 90 33 8.0 13.0 0.00 0.00 0.00 48 1014.7
20260902152805 90 31 4.0 13.0 0.00 0.00 0.00 48 1014.7
20260902152707 90 47 2.0 13.0 0.00 0.00 0.00 47 1014.7
20260902152606 90 351 4.0 13.0 0.00 0.00 0.00 48 1014.7
20260902152308 90 38 6.0 13.0 0.00 0.00 0.00 49 1014.7
20260902152205 89 65 9.0 13.0 0.00 0.00 0.00 49 1014.6
20260902152108 89 128 5.0 13.0 0.00 0.00 0.00 49 1014.7
20260902152005 89 88 9.0 13.0 0.00 0.00 0.00 50 1014.7
20260902151904 89 110 4.0 13.0 0.00 0.00 0.00 50 1014.7
20260902151807 89 76 7.0 13.0 0.00 0.00 0.00 50 1014.8
20260902151706 89 106 5.0 13.0 0.00 0.00 0.00 49 1014.8
20260902151605 89 83 9.0 13.0 0.00 0.00 0.00 49 1014.8
20260902151306 89 61 4.0 13.0 0.00 0.00 0.00 49 1014.8
20260902151207 89 119 3.0 13.0 0.00 0.00 0.00 50 1014.8
20260902151105 89 78 11.0 13.0 0.00 0.00 0.00 49 1014.8
20260902151006 89 76 5.0 13.0 0.00 0.00 0.00 49 1014.8
20260902150908 89 77 12.0 12.0 0.00 0.00 0.00 48 1014.8
20260902150804 89 35 6.0 10.0 0.00 0.00 0.00 49 1014.8
20260902150704 89 42 7.0 10.0 0.00 0.00 0.00 48 1014.8
20260902150607 89 24 8.0 13.0 0.00 0.00 0.00 48 1014.8
20260902150505 89 41 7.0 13.0 0.00 0.00 0.00 48 1014.8
20260902150405 89 26 6.0 15.0 0.00 0.00 0.00 49 1014.8
20260902150307 89 55 6.0 15.0 0.00 0.00 0.00 49 1014.8
20260902150205 89 74 7.0 15.0 0.00 0.00 0.00 48 1014.8
20260902145904 89 31 7.0 15.0 0.00 0.00 0.00 48 1014.8
20260902145605 89 30 10.0 15.0 0.00 0.00 0.00 48 1014.7
20260902145505 89 82 8.0 15.0 0.00 0.00 0.00 48 1014.7
20260902145407 89 87 9.0 15.0 0.00 0.00 0.00 48 1014.7
20260902145306 89 73 12.0 14.0 0.00 0.00 0.00 47 1014.7
20260902145205 89 38 6.0 14.0 0.00 0.00 0.00 47 1014.7
20260902145107 89 46 11.0 14.0 0.00 0.00 0.00 47 1014.7
20260902144904 89 32 7.0 14.0 0.00 0.00 0.00 48 1014.6
20260902144807 89 46 10.0 14.0 0.00 0.00 0.00 47 1014.7
20260902144508 90 40 7.0 14.0 0.00 0.00 0.00 47 1014.6
20260902144404 90 29 9.0 16.0 0.00 0.00 0.00 47 1014.6
20260902144305 90 9 7.0 16.0 0.00 0.00 0.00 47 1014.6
20260902144206 90 27 9.0 16.0 0.00 0.00 0.00 47 1014.6
20260902144104 90 30 5.0 16.0 0.00 0.00 0.00 47 1014.6
20260902143907 90 36 8.0 13.0 0.00 0.00 0.00 47 1014.5
20260902143806 90 16 9.0 13.0 0.00 0.00 0.00 47 1014.5
20260902143704 90 54 8.0 13.0 0.00 0.00 0.00 48 1014.5
20260902143606 90 81 6.0 13.0 0.00 0.00 0.00 48 1014.5
20260902143405 90 25 8.0 13.0 0.00 0.00 0.00 47 1014.5
20260902143308 90 58 9.0 13.0 0.00 0.00 0.00 46 1014.5
20260902143205 90 33 10.0 12.0 0.00 0.00 0.00 46 1014.4
20260902143104 89 41 9.0 9.0 0.00 0.00 0.00 48 1014.5
20260902143010 89 32 7.0 10.0 0.00 0.00 0.00 46 1014.5
20260902142905 89 25 8.0 10.0 0.00 0.00 0.00 46 1014.5
20260902142805 89 32 7.0 10.0 0.00 0.00 0.00 46 1014.4
20260902142605 89 40 7.0 10.0 0.00 0.00 0.00 47 1014.5
20260902142408 89 11 4.0 10.0 0.00 0.00 0.00 45 1014.5
20260902142204 89 18 6.0 10.0 0.00 0.00 0.00 45 1014.5
20260902142005 90 30 7.0 10.0 0.00 0.00 0.00 45 1014.6
20260902141808 90 19 4.0 10.0 0.00 0.00 0.00 45 1014.6
20260902141705 90 29 6.0 10.0 0.00 0.00 0.00 45 1014.7
20260902141605 90 39 7.0 10.0 0.00 0.00 0.00 45 1014.7
20260902141508 90 40 5.0 9.0 0.00 0.00 0.00 45 1014.6
20260902141404 90 40 7.0 9.0 0.00 0.00 0.00 46 1014.7
20260902141305 90 24 8.0 8.0 0.00 0.00 0.00 48 1014.7
20260902141208 90 25 5.0 8.0 0.00 0.00 0.00 48 1014.8
20260902141105 90 351 5.0 10.0 0.00 0.00 0.00 47 1014.8
20260902141006 90 38 7.0 10.0 0.00 0.00 0.00 48 1014.8
20260902140907 90 34 8.0 10.0 0.00 0.00 0.00 47 1014.8
20260902140806 90 344 3.0 10.0 0.00 0.00 0.00 47 1014.8
20260902140704 90 315 2.0 10.0 0.00 0.00 0.00 47 1014.8
20260902140505 91 337 5.0 10.0 0.00 0.00 0.00 46 1014.9
20260902140405 91 333 2.0 10.0 0.00 0.00 0.00 46 1014.9
20260902140309 91 344 3.0 10.0 0.00 0.00 0.00 47 1014.9
20260902140204 91 17 3.0 10.0 0.00 0.00 0.00 47 1014.9
20260902140010 91 355 9.0 10.0 0.00 0.00 0.00 44 1014.9
20260902135906 91 32 6.0 10.0 0.00 0.00 0.00 45 1014.9
20260902135805 91 71 2.0 10.0 0.00 0.00 0.00 44 1014.9
20260902135708 91 46 5.0 10.0 0.00 0.00 0.00 44 1014.9
20260902135506 92 349 10.0 10.0 0.00 0.00 0.00 44 1014.9
20260902135406 92 26 7.0 9.0 0.00 0.00 0.00 45 1014.8
20260902135306 92 42 6.0 9.0 0.00 0.00 0.00 44 1014.9
20260902135106 91 24 7.0 9.0 0.00 0.00 0.00 46 1014.9
20260902135006 91 40 5.0 7.0 0.00 0.00 0.00 44 1014.9
20260902134905 91 256 0.0 6.0 0.00 0.00 0.00 44 1014.9
20260902134704 91 222 3.0 7.0 0.00 0.00 0.00 45 1014.9
20260902134605 91 295 2.0 8.0 0.00 0.00 0.00 46 1015.0
20260902134507 91 290 1.0 8.0 0.00 0.00 0.00 44 1014.9
20260902134404 90 290 2.0 8.0 0.00 0.00 0.00 45 1015.0
20260902134304 90 283 2.0 8.0 0.00 0.00 0.00 44 1015.0
20260902134207 90 334 1.0 8.0 0.00 0.00 0.00 46 1015.0
20260902134105 90 334 4.0 8.0 0.00 0.00 0.00 44 1015.0
20260902134005 91 350 4.0 8.0 0.00 0.00 0.00 46 1015.0
20260902133907 91 26 2.0 9.0 0.00 0.00 0.00 45 1015.0
20260902133804 91 15 4.0 9.0 0.00 0.00 0.00 44 1015.0
20260902133705 91 24 6.0 9.0 0.00 0.00 0.00 44 1015.0
20260902133608 91 28 8.0 9.0 0.00 0.00 0.00 44 1015.0
20260902133404 92 22 6.0 9.0 0.00 0.00 0.00 43 1015.0
20260902133308 92 5 3.0 9.0 0.00 0.00 0.00 43 1015.0
20260902133205 92 32 8.0 9.0 0.00 0.00 0.00 45 1015.0
20260902133009 92 331 5.0 9.0 0.00 0.00 0.00 45 1015.0
20260902132804 92 345 7.0 9.0 0.00 0.00 0.00 47 1015.1
20260902132707 92 360 3.0 8.0 0.00 0.00 0.00 47 1015.2
20260902132604 92 355 7.0 8.0 0.00 0.00 0.00 46 1015.2
20260902132505 92 332 5.0 9.0 0.00 0.00 0.00 46 1015.2
20260902132408 91 355 5.0 9.0 0.00 0.00 0.00 45 1015.2
20260902132205 91 19 7.0 9.0 0.00 0.00 0.00 46 1015.3
20260902132107 91 23 6.0 9.0 0.00 0.00 0.00 45 1015.3
20260902132005 91 32 4.0 9.0 0.00 0.00 0.00 44 1015.2
20260902131507 91 16 6.0 9.0 0.00 0.00 0.00 50 1015.3
20260902131304 90 24 5.0 8.0 0.00 0.00 0.00 46 1015.3
20260902131206 90 10 3.0 8.0 0.00 0.00 0.00 45 1015.3
20260902131105 90 21 5.0 8.0 0.00 0.00 0.00 46 1015.4
20260902131005 90 11 5.0 8.0 0.00 0.00 0.00 48 1015.4
20260902130803 90 338 7.0 8.0 0.00 0.00 0.00 49 1015.3
20260902130704 90 360 6.0 8.0 0.00 0.00 0.00 47 1015.4
20260902130608 90 334 8.0 8.0 0.00 0.00 0.00 46 1015.3
20260902130505 90 9 1.0 5.0 0.00 0.00 0.00 47 1015.4
20260902130404 90 28 2.0 5.0 0.00 0.00 0.00 45 1015.4
20260902130307 90 265 2.0 6.0 0.00 0.00 0.00 45 1015.4
20260902130204 90 265 1.0 6.0 0.00 0.00 0.00 44 1015.4
20260902130012 91 265 0.0 6.0 0.00 0.00 0.00 45 1015.4
20260902125904 91 279 2.0 7.0 0.00 0.00 0.00 44 1015.4
20260902125806 91 279 2.0 7.0 0.00 0.00 0.00 43 1015.5
20260902125707 91 294 3.0 7.0 0.00 0.00 0.00 44 1015.5
20260902125606 91 18 1.0 10.0 0.00 0.00 0.00 46 1015.5
20260902125505 91 18 3.0 10.0 0.00 0.00 0.00 47 1015.4
20260902125408 91 9 3.0 10.0 0.00 0.00 0.00 46 1015.4
20260902125204 91 355 2.0 10.0 0.00 0.00 0.00 46 1015.5
20260902125107 91 351 3.0 10.0 0.00 0.00 0.00 47 1015.5
20260902125004 91 5 3.0 10.0 0.00 0.00 0.00 47 1015.5
20260902124905 91 32 7.0 10.0 0.00 0.00 0.00 46 1015.5
20260902124808 91 29 1.0 10.0 0.00 0.00 0.00 45 1015.6
20260902124704 91 360 4.0 10.0 0.00 0.00 0.00 47 1015.6
20260902124604 91 343 5.0 9.0 0.00 0.00 0.00 45 1015.6
20260902124509 92 28 3.0 9.0 0.00 0.00 0.00 45 1015.6
20260902124406 92 26 6.0 9.0 0.00 0.00 0.00 46 1015.6
20260902124303 92 292 0.0 9.0 0.00 0.00 0.00 46 1015.6
20260902124208 92 292 2.0 9.0 0.00 0.00 0.00 46 1015.7
20260902124103 92 292 1.0 9.0 0.00 0.00 0.00 45 1015.7
20260902123906 92 232 1.0 10.0 0.00 0.00 0.00 45 1015.7
20260902123804 92 249 4.0 10.0 0.00 0.00 0.00 46 1015.7
20260902123704 91 329 4.0 10.0 0.00 0.00 0.00 47 1015.8
20260902123608 91 39 4.0 10.0 0.00 0.00 0.00 48 1015.7
20260902123504 91 38 7.0 10.0 0.00 0.00 0.00 47 1015.8
20260902123307 91 17 5.0 10.0 0.00 0.00 0.00 46 1015.8
20260902123203 91 360 7.0 10.0 0.00 0.00 0.00 46 1015.8
20260902123105 91 39 4.0 10.0 0.00 0.00 0.00 46 1015.8
20260902123010 91 22 10.0 10.0 0.00 0.00 0.00 45 1015.8
20260902122904 91 355 4.0 7.0 0.00 0.00 0.00 47 1015.8
20260902122805 91 355 4.0 8.0 0.00 0.00 0.00 48 1015.9
20260902122706 91 10 6.0 8.0 0.00 0.00 0.00 46 1015.9
20260902122604 91 98 5.0 8.0 0.00 0.00 0.00 47 1015.9
20260902122506 91 42 5.0 8.0 0.00 0.00 0.00 47 1015.8
20260902122407 91 40 5.0 8.0 0.00 0.00 0.00 49 1015.9
20260902122305 91 87 1.0 8.0 0.00 0.00 0.00 49 1015.9
20260902122108 90 86 6.0 8.0 0.00 0.00 0.00 48 1016.0
20260902121904 90 30 4.0 8.0 0.00 0.00 0.00 49 1015.9
20260902121808 90 12 7.0 8.0 0.00 0.00 0.00 49 1016.0
20260902121704 90 309 3.0 8.0 0.00 0.00 0.00 49 1015.9
20260902121208 90 51 8.0 10.0 0.00 0.00 0.00 48 1016.0
20260902121106 90 9 2.0 10.0 0.00 0.00 0.00 49 1016.0
20260902121004 90 88 3.0 10.0 0.00 0.00 0.00 50 1016.0
20260902120907 90 157 2.0 10.0 0.00 0.00 0.00 49 1016.0
20260902120705 89 23 3.0 10.0 0.00 0.00 0.00 50 1016.1
20260902120406 90 63 7.0 10.0 0.00 0.00 0.00 48 1016.1
20260902120307 90 23 8.0 10.0 0.00 0.00 0.00 48 1016.0
20260902120134 90 14 9.0 10.0 0.00 0.00 0.00 50 1016.1
20260902115804 90 59 1.0 9.0 0.00 0.00 0.00 49 1016.2
20260902115605 90 81 5.0 9.0 0.00 0.00 0.00 48 1016.1
20260902115308 89 67 5.0 11.0 0.00 0.00 0.00 50 1016.1
20260902115205 89 32 2.0 11.0 0.00 0.00 0.00 52 1016.1
20260902115107 89 35 4.0 11.0 0.00 0.00 0.00 50 1016.1
20260902115006 89 78 3.0 11.0 0.00 0.00 0.00 49 1016.2
20260902114904 89 67 3.0 11.0 0.00 0.00 0.00 50 1016.1
20260902114806 89 55 5.0 11.0 0.00 0.00 0.00 50 1016.1
20260902114705 89 50 7.0 11.0 0.00 0.00 0.00 49 1016.1
20260902114604 89 32 5.0 11.0 0.00 0.00 0.00 49 1016.1
20260902114507 89 31 7.0 9.0 0.00 0.00 0.00 50 1016.1
20260902114304 89 32 5.0 8.0 0.00 0.00 0.00 51 1016.2
20260902114207 88 288 2.0 9.0 0.00 0.00 0.00 49 1016.2
20260902114107 88 284 1.0 10.0 0.00 0.00 0.00 50 1016.2
20260902114007 88 311 4.0 10.0 0.00 0.00 0.00 51 1016.2
20260902113907 88 355 5.0 10.0 0.00 0.00 0.00 51 1016.2
20260902113804 88 333 6.0 10.0 0.00 0.00 0.00 49 1016.2
20260902113705 88 26 4.0 10.0 0.00 0.00 0.00 49 1016.2
20260902113307 89 55 5.0 10.0 0.00 0.00 0.00 49 1016.2
20260902113204 89 28 7.0 10.0 0.00 0.00 0.00 51 1016.3
20260902113105 89 23 8.0 8.0 0.00 0.00 0.00 51 1016.3
20260902112905 88 42 2.0 7.0 0.00 0.00 0.00 51 1016.4
20260902112804 88 19 5.0 7.0 0.00 0.00 0.00 50 1016.4
20260902112505 88 281 1.0 5.0 0.00 0.00 0.00 50 1016.5
20260902112408 88 213 2.0 5.0 0.00 0.00 0.00 50 1016.4
20260902112306 88 186 1.0 7.0 0.00 0.00 0.00 51 1016.5
20260902112204 88 186 3.0 7.0 0.00 0.00 0.00 50 1016.5
20260902112107 88 225 3.0 7.0 0.00 0.00 0.00 50 1016.5
20260902112006 88 80 0.0 7.0 0.00 0.00 0.00 51 1016.5
20260902111904 88 80 1.0 7.0 0.00 0.00 0.00 51 1016.5
20260902111808 88 80 1.0 9.0 0.00 0.00 0.00 51 1016.6
20260902111704 88 128 2.0 9.0 0.00 0.00 0.00 51 1016.5
20260902111507 88 333 2.0 9.0 0.00 0.00 0.00 50 1016.6
20260902111405 88 342 2.0 9.0 0.00 0.00 0.00 51 1016.7
20260902111304 88 348 4.0 9.0 0.00 0.00 0.00 51 1016.7
20260902111104 88 17 5.0 9.0 0.00 0.00 0.00 49 1016.7
20260902110906 88 42 5.0 9.0 0.00 0.00 0.00 51 1016.7
20260902110805 88 34 7.0 9.0 0.00 0.00 0.00 51 1016.8
20260902110705 88 12 5.0 8.0 0.00 0.00 0.00 51 1016.7
20260902110607 88 355 8.0 8.0 0.00 0.00 0.00 51 1016.8
20260902110504 88 346 3.0 8.0 0.00 0.00 0.00 52 1016.8
20260902110406 88 360 5.0 7.0 0.00 0.00 0.00 52 1016.8
20260902110204 88 265 2.0 8.0 0.00 0.00 0.00 52 1016.8
20260902110108 87 292 4.0 8.0 0.00 0.00 0.00 52 1016.8
20260902110012 87 296 3.0 8.0 0.00 0.00 0.00 52 1016.8
20260902105905 87 304 2.0 9.0 0.00 0.00 0.00 54 1016.8
20260902105804 87 304 4.0 9.0 0.00 0.00 0.00 54 1016.9
20260902105604 87 22 3.0 9.0 0.00 0.00 0.00 51 1016.9
20260902105507 87 41 2.0 9.0 0.00 0.00 0.00 50 1016.9
20260902105408 87 42 6.0 9.0 0.00 0.00 0.00 50 1016.8
20260902105306 87 49 5.0 9.0 0.00 0.00 0.00 51 1016.8
20260902105204 87 28 6.0 9.0 0.00 0.00 0.00 51 1016.8
20260902105107 87 49 4.0 9.0 0.00 0.00 0.00 50 1016.8
20260902105005 88 41 7.0 9.0 0.00 0.00 0.00 51 1016.8
20260902104905 88 46 8.0 9.0 0.00 0.00 0.00 51 1016.8
20260902104807 88 15 3.0 10.0 0.00 0.00 0.00 51 1016.9
20260902104704 88 9 4.0 10.0 0.00 0.00 0.00 53 1016.9
20260902104604 88 329 4.0 10.0 0.00 0.00 0.00 52 1016.9
20260902104507 88 335 2.0 10.0 0.00 0.00 0.00 54 1016.9
20260902104405 87 44 0.0 10.0 0.00 0.00 0.00 54 1016.9
20260902104207 87 44 4.0 10.0 0.00 0.00 0.00 53 1016.9
20260902104104 88 82 2.0 10.0 0.00 0.00 0.00 53 1016.9
20260902104006 88 19 1.0 10.0 0.00 0.00 0.00 55 1017.0
20260902103907 88 347 5.0 10.0 0.00 0.00 0.00 55 1017.0
20260902103804 87 19 8.0 10.0 0.00 0.00 0.00 53 1016.9
20260902103607 87 17 8.0 10.0 0.00 0.00 0.00 55 1017.0
20260902103504 87 15 8.0 10.0 0.00 0.00 0.00 54 1017.0
20260902103307 87 30 8.0 10.0 0.00 0.00 0.00 54 1017.1
20260902103205 87 336 7.0 9.0 0.00 0.00 0.00 54 1017.1
20260902103104 87 302 2.0 9.0 0.00 0.00 0.00 56 1017.1
20260902103008 87 22 5.0 9.0 0.00 0.00 0.00 55 1017.1
20260902102905 87 311 2.0 9.0 0.00 0.00 0.00 54 1017.2
20260902102803 87 281 3.0 9.0 0.00 0.00 0.00 56 1017.2
20260902102604 87 316 7.0 9.0 0.00 0.00 0.00 54 1017.2
20260902102504 87 331 4.0 9.0 0.00 0.00 0.00 55 1017.2
20260902102406 87 319 7.0 10.0 0.00 0.00 0.00 56 1017.2
20260902102107 87 10 0.0 10.0 0.00 0.00 0.00 54 1017.2
20260902102005 87 32 4.0 10.0 0.00 0.00 0.00 54 1017.2
20260902101905 87 45 6.0 10.0 0.00 0.00 0.00 55 1017.2
20260902101807 87 360 7.0 10.0 0.00 0.00 0.00 55 1017.3
20260902101703 87 355 6.0 10.0 0.00 0.00 0.00 55 1017.3
20260902101605 86 294 4.0 10.0 0.00 0.00 0.00 57 1017.3
20260902101405 86 360 5.0 10.0 0.00 0.00 0.00 56 1017.3
20260902101304 86 360 5.0 10.0 0.00 0.00 0.00 57 1017.2
20260902101207 86 340 9.0 9.0 0.00 0.00 0.00 58 1017.3
20260902101103 86 345 5.0 9.0 0.00 0.00 0.00 57 1017.2
20260902100907 86 333 7.0 9.0 0.00 0.00 0.00 58 1017.3
20260902100804 86 350 1.0 8.0 0.00 0.00 0.00 58 1017.3
20260902100607 86 252 1.0 9.0 0.00 0.00 0.00 59 1017.2
20260902100504 86 244 4.0 9.0 0.00 0.00 0.00 60 1017.3
20260902100307 86 298 2.0 9.0 0.00 0.00 0.00 60 1017.2
20260902100204 86 311 6.0 9.0 0.00 0.00 0.00 61 1017.3
20260902100119 85 302 4.0 9.0 0.00 0.00 0.00 59 1017.3
20260902100011 85 271 3.0 9.0 0.00 0.00 0.00 60 1017.3
20260902095803 85 340 3.0 9.0 0.00 0.00 0.00 60 1017.3
20260902095604 86 288 2.0 9.0 0.00 0.00 0.00 60 1017.3
20260902095407 86 256 6.0 9.0 0.00 0.00 0.00 61 1017.3
20260902095307 86 287 5.0 9.0 0.00 0.00 0.00 59 1017.4
20260902095205 86 269 3.0 9.0 0.00 0.00 0.00 60 1017.4
20260902095107 86 284 4.0 9.0 0.00 0.00 0.00 60 1017.4
20260902095005 86 286 4.0 10.0 0.00 0.00 0.00 61 1017.5
20260902094904 86 334 7.0 10.0 0.00 0.00 0.00 61 1017.4
20260902094807 85 263 4.0 10.0 0.00 0.00 0.00 64 1017.4
20260902094705 85 350 2.0 10.0 0.00 0.00 0.00 64 1017.4
20260902094605 85 29 7.0 10.0 0.00 0.00 0.00 63 1017.4
20260902094508 85 347 6.0 10.0 0.00 0.00 0.00 62 1017.4
20260902094404 85 300 2.0 10.0 0.00 0.00 0.00 62 1017.4
20260902094305 85 292 1.0 10.0 0.00 0.00 0.00 62 1017.4
20260902094206 85 292 1.0 10.0 0.00 0.00 0.00 63 1017.5
20260902094104 85 289 5.0 10.0 0.00 0.00 0.00 63 1017.4
20260902094005 85 313 4.0 9.0 0.00 0.00 0.00 63 1017.4
20260902093907 85 260 5.0 9.0 0.00 0.00 0.00 62 1017.4
20260902093803 85 259 4.0 9.0 0.00 0.00 0.00 62 1017.4
20260902093704 85 281 7.0 9.0 0.00 0.00 0.00 61 1017.4
20260902093607 85 317 3.0 9.0 0.00 0.00 0.00 62 1017.4
20260902093403 85 348 6.0 9.0 0.00 0.00 0.00 63 1017.5
20260902093205 85 338 9.0 10.0 0.00 0.00 0.00 63 1017.5
20260902093104 85 334 7.0 10.0 0.00 0.00 0.00 63 1017.5
20260902093008 85 284 3.0 10.0 0.00 0.00 0.00 63 1017.5
20260902092904 85 287 7.0 10.0 0.00 0.00 0.00 63 1017.5
20260902092804 85 337 6.0 10.0 0.00 0.00 0.00 63 1017.5
20260902092707 86 301 5.0 10.0 0.00 0.00 0.00 62 1017.5
20260902092605 86 267 5.0 10.0 0.00 0.00 0.00 63 1017.5
20260902092504 86 291 8.0 10.0 0.00 0.00 0.00 62 1017.5
20260902092407 86 355 9.0 10.0 0.00 0.00 0.00 61 1017.5
20260902092204 86 322 4.0 11.0 0.00 0.00 0.00 64 1017.5
20260902092107 86 360 6.0 11.0 0.00 0.00 0.00 64 1017.4
20260902092005 85 347 6.0 11.0 0.00 0.00 0.00 62 1017.5
20260902091905 85 360 7.0 11.0 0.00 0.00 0.00 63 1017.4
20260902091807 85 331 3.0 11.0 0.00 0.00 0.00 63 1017.5
20260902091705 85 351 4.0 11.0 0.00 0.00 0.00 63 1017.4
20260902091604 85 316 7.0 11.0 0.00 0.00 0.00 62 1017.4
20260902091508 85 331 4.0 11.0 0.00 0.00 0.00 62 1017.5
20260902091404 85 319 8.0 11.0 0.00 0.00 0.00 64 1017.5
20260902091304 85 297 5.0 11.0 0.00 0.00 0.00 63 1017.4
20260902091206 85 355 10.0 12.0 0.00 0.00 0.00 62 1017.4
20260902091105 85 349 6.0 12.0 0.00 0.00 0.00 63 1017.4
20260902091004 85 355 6.0 12.0 0.00 0.00 0.00 63 1017.4
20260902090908 85 355 4.0 12.0 0.00 0.00 0.00 62 1017.4
20260902090804 85 360 7.0 12.0 0.00 0.00 0.00 63 1017.4
20260902090703 84 355 8.0 12.0 0.00 0.00 0.00 63 1017.4
20260902090607 84 329 7.0 12.0 0.00 0.00 0.00 63 1017.4
20260902090404 84 290 8.0 12.0 0.00 0.00 0.00 63 1017.4
20260902090306 84 321 7.0 12.0 0.00 0.00 0.00 64 1017.4
20260902090205 84 5 7.0 12.0 0.00 0.00 0.00 64 1017.4
20260902090104 84 360 10.0 11.0 0.00 0.00 0.00 65 1017.4
20260902090011 83 355 7.0 11.0 0.00 0.00 0.00 63 1017.4
20260902085904 83 339 4.0 11.0 0.00 0.00 0.00 63 1017.4
20260902085804 83 279 2.0 11.0 0.00 0.00 0.00 63 1017.4
20260902085706 83 286 4.0 11.0 0.00 0.00 0.00 64 1017.4
20260902085504 83 290 5.0 11.0 0.00 0.00 0.00 64 1017.4
20260902085407 83 319 6.0 11.0 0.00 0.00 0.00 65 1017.3
20260902085306 83 330 7.0 11.0 0.00 0.00 0.00 64 1017.4
20260902085005 82 315 5.0 9.0 0.00 0.00 0.00 64 1017.4
20260902084905 82 293 2.0 9.0 0.00 0.00 0.00 64 1017.4
20260902084807 82 293 5.0 9.0 0.00 0.00 0.00 64 1017.4
20260902084704 82 277 3.0 10.0 0.00 0.00 0.00 62 1017.4
20260902084604 83 269 4.0 10.0 0.00 0.00 0.00 62 1017.4
20260902084508 83 272 6.0 10.0 0.00 0.00 0.00 63 1017.3
20260902084404 83 298 3.0 10.0 0.00 0.00 0.00 64 1017.3
20260902084304 83 298 4.0 10.0 0.00 0.00 0.00 65 1017.3
20260902084208 82 334 6.0 10.0 0.00 0.00 0.00 66 1017.3
20260902084105 82 319 8.0 10.0 0.00 0.00 0.00 65 1017.3
20260902084006 82 317 5.0 10.0 0.00 0.00 0.00 63 1017.3
20260902083907 82 270 6.0 10.0 0.00 0.00 0.00 63 1017.3
20260902083704 82 275 7.0 9.0 0.00 0.00 0.00 63 1017.3
20260902083607 82 290 3.0 9.0 0.00 0.00 0.00 63 1017.3
20260902083403 82 324 6.0 9.0 0.00 0.00 0.00 63 1017.3
20260902083307 82 300 3.0 9.0 0.00 0.00 0.00 64 1017.3
20260902083203 82 317 7.0 9.0 0.00 0.00 0.00 63 1017.3
20260902083008 82 300 7.0 9.0 0.00 0.00 0.00 63 1017.3
20260902082804 82 300 7.0 11.0 0.00 0.00 0.00 64 1017.2
20260902082707 82 301 5.0 11.0 0.00 0.00 0.00 64 1017.2
20260902082605 81 322 6.0 11.0 0.00 0.00 0.00 64 1017.2
20260902082504 81 318 3.0 11.0 0.00 0.00 0.00 64 1017.2
20260902082407 81 317 5.0 11.0 0.00 0.00 0.00 63 1017.2
20260902082309 81 279 4.0 11.0 0.00 0.00 0.00 63 1017.2
20260902082204 81 299 6.0 11.0 0.00 0.00 0.00 63 1017.2